Wetterdaten: Mittwoch, 29.03.2017
Datum Zeit Temp. Aussen Temp. o. S. +5cm Feuchte Auss BlattFeu 1 Luftdruck Regen Sonnenschein Regendauer Solar Windben Empfang
29.03.2017 00:00 13,6 C 11,7 C 8,9 C 73 % 0 lf 1022,2 hPa 0,0 l/m 0 min 0 min 0 W/m 6,3 km/h (2 Bft) 93,62 %
29.03.2017 00:02 13,6 C 11,7 C 8,9 C 73 % 0 lf 1022,2 hPa 0,0 l/m 0 min 0 min 0 W/m 8,4 km/h (2 Bft) 94,29 %
29.03.2017 00:04 13,5 C 11,7 C 8,9 C 73 % 0 lf 1022,2 hPa 0,0 l/m 0 min 0 min 5 W/m 4,2 km/h (1 Bft) 97,87 %
29.03.2017 00:06 13,5 C 11,7 C 8,3 C 73 % 0 lf 1022,2 hPa 0,0 l/m 0 min 0 min 0 W/m 6,3 km/h (2 Bft) 97,87 %
29.03.2017 00:10 13,4 C 11,1 C 8,3 C 73 % 0 lf 1022,2 hPa 0,0 l/m 0 min 0 min 5 W/m 8,4 km/h (2 Bft) 95,70 %
29.03.2017 00:12 13,3 C 11,7 C 8,3 C 73 % 0 lf 1022,2 hPa 0,0 l/m 0 min 0 min 5 W/m 8,4 km/h (2 Bft) 93,62 %
29.03.2017 00:14 13,3 C 11,1 C 8,3 C 73 % 0 lf 1022,2 hPa 0,0 l/m 0 min 0 min 5 W/m 6,3 km/h (2 Bft) 97,87 %
29.03.2017 00:16 13,2 C 11,1 C 8,3 C 74 % 0 lf 1022,2 hPa 0,0 l/m 0 min 0 min 5 W/m 8,4 km/h (2 Bft) 97,87 %
29.03.2017 00:18 13,2 C 11,1 C 8,3 C 74 % 0 lf 1022,2 hPa 0,0 l/m 0 min 0 min 5 W/m 6,3 km/h (2 Bft) 97,87 %
29.03.2017 00:20 13,1 C 11,1 C 8,3 C 74 % 0 lf 1022,3 hPa 0,0 l/m 0 min 0 min 0 W/m 6,3 km/h (2 Bft) 95,74 %
29.03.2017 00:22 13,1 C 11,1 C 7,8 C 74 % 0 lf 1022,3 hPa 0,0 l/m 0 min 0 min 1 W/m 6,3 km/h (2 Bft) 96,30 %
29.03.2017 00:24 13,0 C 11,1 C 7,8 C 74 % 0 lf 1022,3 hPa 0,0 l/m 0 min 0 min 0 W/m 6,3 km/h (2 Bft) 93,48 %
29.03.2017 00:26 12,9 C 10,6 C 7,8 C 74 % 0 lf 1022,3 hPa 0,0 l/m 0 min 0 min 0 W/m 6,3 km/h (2 Bft) 97,87 %
29.03.2017 00:28 12,9 C 10,6 C 7,8 C 74 % 0 lf 1022,4 hPa 0,0 l/m 0 min 0 min 0 W/m 4,2 km/h (1 Bft) 95,74 %
29.03.2017 00:30 12,8 C 10,6 C 7,8 C 74 % 0 lf 1022,4 hPa 0,0 l/m 0 min 0 min 0 W/m 6,3 km/h (2 Bft) 95,74 %
29.03.2017 00:32 12,7 C 10,6 C 7,8 C 75 % 0 lf 1022,4 hPa 0,0 l/m 0 min 0 min 0 W/m 6,3 km/h (2 Bft) 93,62 %
29.03.2017 00:34 12,7 C 10,6 C 7,2 C 75 % 0 lf 1022,4 hPa 0,0 l/m 0 min 0 min 0 W/m 6,3 km/h (2 Bft) 95,74 %
29.03.2017 00:36 12,6 C 10,6 C 7,2 C 75 % 0 lf 1022,4 hPa 0,0 l/m 0 min 0 min 0 W/m 4,2 km/h (1 Bft) 91,30 %
29.03.2017 00:38 12,6 C 10,6 C 7,2 C 75 % 0 lf 1022,5 hPa 0,0 l/m 0 min 0 min 0 W/m 4,2 km/h (1 Bft) 95,74 %
29.03.2017 00:40 12,5 C 10,0 C 7,2 C 75 % 0 lf 1022,5 hPa 0,0 l/m 0 min 0 min 0 W/m 4,2 km/h (1 Bft) 89,36 %
29.03.2017 00:42 12,4 C 10,0 C 7,2 C 75 % 0 lf 1022,5 hPa 0,0 l/m 0 min 0 min 0 W/m 6,3 km/h (2 Bft) 93,62 %
29.03.2017 00:44 12,4 C 10,0 C 7,2 C 75 % 0 lf 1022,5 hPa 0,0 l/m 0 min 0 min 0 W/m 6,3 km/h (2 Bft) 100,00 %
29.03.2017 00:46 12,3 C 10,0 C 7,2 C 75 % 0 lf 1022,4 hPa 0,0 l/m 0 min 0 min 0 W/m 6,3 km/h (2 Bft) 95,65 %
29.03.2017 00:48 12,3 C 10,0 C 7,2 C 76 % 0 lf 1022,4 hPa 0,0 l/m 0 min 0 min 0 W/m 6,3 km/h (2 Bft) 97,87 %
29.03.2017 00:50 12,2 C 10,0 C 7,2 C 76 % 0 lf 1022,4 hPa 0,0 l/m 0 min 0 min 0 W/m 6,3 km/h (2 Bft) 93,62 %
29.03.2017 00:52 12,2 C 10,0 C 6,7 C 76 % 0 lf 1022,4 hPa 0,0 l/m 0 min 0 min 0 W/m 6,3 km/h (2 Bft) 85,11 %
29.03.2017 00:54 12,1 C 10,0 C 6,7 C 76 % 0 lf 1022,5 hPa 0,0 l/m 0 min 0 min 0 W/m 6,3 km/h (2 Bft) 95,74 %
29.03.2017 00:56 12,1 C 9,4 C 6,7 C 76 % 0 lf 1022,4 hPa 0,0 l/m 0 min 0 min 0 W/m 6,3 km/h (2 Bft) 93,62 %
29.03.2017 00:58 12,0 C 10,0 C 6,7 C 76 % 0 lf 1022,5 hPa 0,0 l/m 0 min 0 min 0 W/m 6,3 km/h (2 Bft) 91,30 %
29.03.2017 01:00 11,9 C 10,0 C 7,2 C 77 % 0 lf 1022,4 hPa 0,0 l/m 0 min 0 min 0 W/m 8,4 km/h (2 Bft) 93,62 %
29.03.2017 01:02 11,8 C 10,6 C 7,2 C 78 % 0 lf 1022,5 hPa 0,0 l/m 0 min 0 min 0 W/m 12,6 km/h (3 Bft) 95,74 %
29.03.2017 01:04 11,8 C 10,6 C 7,2 C 78 % 0 lf 1022,5 hPa 0,0 l/m 0 min 0 min 0 W/m 8,4 km/h (2 Bft) 93,62 %
29.03.2017 01:06 11,7 C 10,6 C 7,8 C 78 % 0 lf 1022,5 hPa 0,0 l/m 0 min 0 min 0 W/m 10,5 km/h (2 Bft) 97,87 %
29.03.2017 01:08 11,7 C 10,6 C 7,8 C 79 % 0 lf 1022,5 hPa 0,0 l/m 0 min 0 min 0 W/m 10,5 km/h (2 Bft) 97,87 %
29.03.2017 01:10 11,6 C 10,6 C 7,8 C 79 % 0 lf 1022,5 hPa 0,0 l/m 0 min 0 min 0 W/m 10,5 km/h (2 Bft) 95,65 %
29.03.2017 01:12 11,6 C 10,6 C 7,8 C 80 % 0 lf 1022,5 hPa 0,0 l/m 0 min 0 min 0 W/m 10,5 km/h (2 Bft) 100,00 %
29.03.2017 01:14 11,6 C 10,6 C 8,3 C 80 % 0 lf 1022,5 hPa 0,0 l/m 0 min 0 min 0 W/m 14,6 km/h (3 Bft) 95,74 %
29.03.2017 01:16 11,5 C 10,6 C 8,3 C 81 % 0 lf 1022,5 hPa 0,0 l/m 0 min 0 min 0 W/m 12,6 km/h (3 Bft) 97,87 %
29.03.2017 01:18 11,5 C 10,6 C 8,3 C 81 % 0 lf 1022,5 hPa 0,0 l/m 0 min 0 min 0 W/m 6,3 km/h (2 Bft) 97,87 %
29.03.2017 01:20 11,4 C 10,6 C 8,3 C 81 % 0 lf 1022,5 hPa 0,0 l/m 0 min 0 min 0 W/m 10,5 km/h (2 Bft) 97,87 %
29.03.2017 01:22 11,4 C 10,6 C 7,8 C 81 % 0 lf 1022,5 hPa 0,0 l/m 0 min 0 min 0 W/m 8,4 km/h (2 Bft) 95,65 %
29.03.2017 01:24 11,4 C 10,6 C 7,8 C 81 % 0 lf 1022,6 hPa 0,0 l/m 0 min 0 min 0 W/m 6,3 km/h (2 Bft) 97,87 %
29.03.2017 01:26 11,4 C 10,6 C 7,8 C 81 % 0 lf 1022,5 hPa 0,0 l/m 0 min 0 min 0 W/m 8,4 km/h (2 Bft) 93,62 %
29.03.2017 01:28 11,4 C 10,6 C 7,8 C 81 % 0 lf 1022,6 hPa 0,0 l/m 0 min 0 min 0 W/m 14,6 km/h (3 Bft) 95,74 %
29.03.2017 01:30 11,3 C 10,6 C 8,3 C 81 % 0 lf 1022,5 hPa 0,0 l/m 0 min 0 min 0 W/m 10,5 km/h (2 Bft) 97,87 %
29.03.2017 01:32 11,3 C 10,6 C 8,3 C 82 % 0 lf 1022,5 hPa 0,0 l/m 0 min 0 min 0 W/m 8,4 km/h (2 Bft) 97,87 %
29.03.2017 01:34 11,3 C 10,6 C 8,3 C 82 % 0 lf 1022,6 hPa 0,0 l/m 0 min 0 min 0 W/m 16,7 km/h (3 Bft) 97,83 %
29.03.2017 01:36 11,3 C 10,6 C 8,3 C 82 % 0 lf 1022,6 hPa 0,0 l/m 0 min 0 min 0 W/m 12,6 km/h (3 Bft) 97,87 %
29.03.2017 01:38 11,3 C 11,1 C 8,3 C 82 % 0 lf 1022,5 hPa 0,0 l/m 0 min 0 min 0 W/m 14,6 km/h (3 Bft) 95,74 %
29.03.2017 01:40 11,3 C 11,1 C 8,9 C 82 % 0 lf 1022,6 hPa 0,0 l/m 0 min 0 min 0 W/m 16,7 km/h (3 Bft) 95,74 %
29.03.2017 01:42 11,3 C 11,1 C 8,9 C 82 % 0 lf 1022,6 hPa 0,0 l/m 0 min 0 min 0 W/m 12,6 km/h (3 Bft) 100,00 %
29.03.2017 01:44 11,3 C 11,1 C 8,9 C 82 % 0 lf 1022,6 hPa 0,0 l/m 0 min 0 min 0 W/m 10,5 km/h (2 Bft) 97,87 %
29.03.2017 01:46 11,3 C 10,6 C 8,9 C 82 % 0 lf 1022,6 hPa 0,0 l/m 0 min 0 min 0 W/m 10,5 km/h (2 Bft) 100,00 %
29.03.2017 01:48 11,3 C 10,6 C 8,3 C 82 % 0 lf 1022,5 hPa 0,0 l/m 0 min 0 min 0 W/m 12,6 km/h (3 Bft) 100,00 %
29.03.2017 01:50 11,3 C 10,6 C 8,3 C 82 % 0 lf 1022,5 hPa 0,0 l/m 0 min 0 min 0 W/m 10,5 km/h (2 Bft) 100,00 %
29.03.2017 01:52 11,2 C 10,6 C 8,3 C 82 % 0 lf 1022,5 hPa 0,0 l/m 0 min 0 min 0 W/m 8,4 km/h (2 Bft) 97,87 %
29.03.2017 01:54 11,2 C 10,6 C 8,3 C 82 % 0 lf 1022,5 hPa 0,0 l/m 0 min 0 min 0 W/m 8,4 km/h (2 Bft) 100,00 %
29.03.2017 01:56 11,2 C 10,6 C 8,3 C 82 % 0 lf 1022,5 hPa 0,0 l/m 0 min 0 min 0 W/m 6,3 km/h (2 Bft) 100,00 %
29.03.2017 01:58 11,2 C 10,6 C 8,3 C 82 % 0 lf 1022,5 hPa 0,0 l/m 0 min 0 min 0 W/m 10,5 km/h (2 Bft) 100,00 %
29.03.2017 02:00 11,2 C 10,6 C 8,3 C 82 % 0 lf 1022,5 hPa 0,0 l/m 0 min 0 min 0 W/m 8,4 km/h (2 Bft) 97,87 %
29.03.2017 02:02 11,2 C 10,6 C 8,3 C 82 % 0 lf 1022,5 hPa 0,0 l/m 0 min 0 min 0 W/m 10,5 km/h (2 Bft) 100,00 %
29.03.2017 02:04 11,2 C 10,6 C 8,3 C 82 % 0 lf 1022,5 hPa 0,0 l/m 0 min 0 min 0 W/m 8,4 km/h (2 Bft) 100,00 %
29.03.2017 02:06 11,2 C 10,6 C 8,3 C 82 % 0 lf 1022,5 hPa 0,0 l/m 0 min 0 min 0 W/m 8,4 km/h (2 Bft) 97,87 %
29.03.2017 02:08 11,2 C 10,6 C 8,3 C 82 % 0 lf 1022,5 hPa 0,0 l/m 0 min 0 min 0 W/m 8,4 km/h (2 Bft) 100,00 %
29.03.2017 02:10 11,1 C 10,6 C 8,3 C 82 % 0 lf 1022,5 hPa 0,0 l/m 0 min 0 min 0 W/m 6,3 km/h (2 Bft) 97,83 %
29.03.2017 02:12 11,1 C 10,6 C 8,3 C 82 % 0 lf 1022,5 hPa 0,0 l/m 0 min 0 min 0 W/m 10,5 km/h (2 Bft) 97,87 %
29.03.2017 02:14 11,1 C 10,6 C 8,3 C 82 % 0 lf 1022,5 hPa 0,0 l/m 0 min 0 min 0 W/m 12,6 km/h (3 Bft) 100,00 %
29.03.2017 02:16 11,1 C 10,6 C 8,9 C 82 % 0 lf 1022,5 hPa 0,0 l/m 0 min 0 min 0 W/m 10,5 km/h (2 Bft) 100,00 %
29.03.2017 02:18 11,1 C 10,6 C 8,3 C 82 % 0 lf 1022,5 hPa 0,0 l/m 0 min 0 min 0 W/m 12,6 km/h (3 Bft) 97,87 %
29.03.2017 02:20 11,1 C 10,6 C 8,3 C 82 % 0 lf 1022,5 hPa 0,0 l/m 0 min 0 min 0 W/m 14,6 km/h (3 Bft) 100,00 %
29.03.2017 02:22 11,1 C 10,6 C 8,9 C 82 % 0 lf 1022,5 hPa 0,0 l/m 0 min 0 min 0 W/m 10,5 km/h (2 Bft) 98,00 %
29.03.2017 02:24 11,1 C 10,6 C 8,3 C 83 % 0 lf 1022,5 hPa 0,0 l/m 0 min 0 min 0 W/m 12,6 km/h (3 Bft) 97,83 %
29.03.2017 02:26 11,1 C 10,6 C 8,3 C 83 % 0 lf 1022,5 hPa 0,0 l/m 0 min 0 min 0 W/m 12,6 km/h (3 Bft) 97,87 %
29.03.2017 02:28 11,1 C 10,6 C 8,9 C 83 % 0 lf 1022,5 hPa 0,0 l/m 0 min 0 min 0 W/m 12,6 km/h (3 Bft) 97,87 %
29.03.2017 02:30 11,1 C 10,6 C 8,9 C 83 % 0 lf 1022,5 hPa 0,0 l/m 0 min 0 min 0 W/m 12,6 km/h (3 Bft) 95,74 %
29.03.2017 02:32 11,1 C 11,1 C 8,9 C 83 % 0 lf 1022,5 hPa 0,0 l/m 0 min 0 min 0 W/m 12,6 km/h (3 Bft) 97,14 %
29.03.2017 02:34 11,1 C 10,6 C 8,9 C 83 % 0 lf 1022,5 hPa 0,0 l/m 0 min 0 min 0 W/m 12,6 km/h (3 Bft) 96,55 %
29.03.2017 02:36 11,1 C 11,1 C 8,9 C 83 % 0 lf 1022,5 hPa 0,0 l/m 0 min 0 min 0 W/m 14,6 km/h (3 Bft) 95,74 %
29.03.2017 02:38 11,1 C 10,6 C 8,9 C 83 % 0 lf 1022,6 hPa 0,0 l/m 0 min 0 min 0 W/m 12,6 km/h (3 Bft) 97,87 %
29.03.2017 02:40 11,1 C 10,6 C 8,9 C 83 % 0 lf 1022,6 hPa 0,0 l/m 0 min 0 min 0 W/m 12,6 km/h (3 Bft) 97,87 %
29.03.2017 02:42 11,1 C 10,6 C 8,9 C 83 % 0 lf 1022,5 hPa 0,0 l/m 0 min 0 min 0 W/m 12,6 km/h (3 Bft) 97,83 %
29.03.2017 02:44 11,1 C 10,6 C 8,9 C 83 % 0 lf 1022,6 hPa 0,0 l/m 0 min 0 min 0 W/m 12,6 km/h (3 Bft) 97,87 %
29.03.2017 02:46 11,1 C 10,6 C 8,3 C 83 % 0 lf 1022,6 hPa 0,0 l/m 0 min 0 min 0 W/m 10,5 km/h (2 Bft) 95,74 %
29.03.2017 02:48 11,1 C 10,6 C 8,3 C 83 % 0 lf 1022,6 hPa 0,0 l/m 0 min 0 min 0 W/m 12,6 km/h (3 Bft) 97,87 %
29.03.2017 02:50 11,1 C 10,6 C 8,3 C 83 % 0 lf 1022,6 hPa 0,0 l/m 0 min 0 min 0 W/m 16,7 km/h (3 Bft) 97,87 %
29.03.2017 02:52 11,1 C 10,6 C 8,9 C 83 % 0 lf 1022,6 hPa 0,0 l/m 0 min 0 min 0 W/m 12,6 km/h (3 Bft) 97,14 %
29.03.2017 02:54 11,1 C 10,6 C 8,3 C 83 % 0 lf 1022,6 hPa 0,0 l/m 0 min 0 min 0 W/m 10,5 km/h (2 Bft) 95,74 %
29.03.2017 02:56 11,1 C 10,6 C 8,3 C 83 % 0 lf 1022,6 hPa 0,0 l/m 0 min 0 min 0 W/m 10,5 km/h (2 Bft) 94,83 %
29.03.2017 02:58 11,1 C 11,1 C 8,9 C 83 % 0 lf 1022,6 hPa 0,0 l/m 0 min 0 min 0 W/m 10,5 km/h (2 Bft) 97,87 %
29.03.2017 03:00 11,1 C 11,1 C 8,9 C 83 % 0 lf 1022,6 hPa 0,0 l/m 0 min 0 min 0 W/m 10,5 km/h (2 Bft) 100,00 %
29.03.2017 03:02 11,1 C 11,1 C 8,9 C 83 % 0 lf 1022,6 hPa 0,0 l/m 0 min 0 min 0 W/m 12,6 km/h (3 Bft) 94,92 %
29.03.2017 03:04 11,1 C 11,1 C 8,9 C 83 % 0 lf 1022,6 hPa 0,0 l/m 0 min 0 min 0 W/m 12,6 km/h (3 Bft) 91,43 %
29.03.2017 03:06 11,0 C 11,1 C 8,9 C 83 % 0 lf 1022,6 hPa 0,0 l/m 0 min 0 min 0 W/m 12,6 km/h (3 Bft) 94,83 %
29.03.2017 03:08 11,0 C 11,1 C 8,9 C 83 % 0 lf 1022,7 hPa 0,0 l/m 0 min 0 min 0 W/m 12,6 km/h (3 Bft) 93,62 %
29.03.2017 03:10 11,0 C 10,6 C 8,9 C 83 % 0 lf 1022,6 hPa 0,0 l/m 0 min 0 min 0 W/m 10,5 km/h (2 Bft) 93,62 %
29.03.2017 03:12 11,0 C 10,6 C 8,9 C 83 % 0 lf 1022,6 hPa 0,0 l/m 0 min 0 min 0 W/m 12,6 km/h (3 Bft) 95,74 %
29.03.2017 03:14 11,0 C 10,6 C 8,3 C 83 % 0 lf 1022,6 hPa 0,0 l/m 0 min 0 min 0 W/m 8,4 km/h (2 Bft) 91,49 %
29.03.2017 03:16 11,0 C 10,6 C 8,3 C 83 % 0 lf 1022,6 hPa 0,0 l/m 0 min 0 min 0 W/m 10,5 km/h (2 Bft) 89,36 %
29.03.2017 03:18 11,0 C 10,6 C 8,3 C 83 % 0 lf 1022,6 hPa 0,0 l/m 0 min 0 min 0 W/m 10,5 km/h (2 Bft) 93,48 %
29.03.2017 03:20 11,0 C 10,6 C 8,3 C 83 % 0 lf 1022,6 hPa 0,0 l/m 0 min 0 min 0 W/m 8,4 km/h (2 Bft) 95,74 %
29.03.2017 03:22 11,0 C 10,6 C 8,3 C 83 % 0 lf 1022,7 hPa 0,0 l/m 0 min 0 min 0 W/m 12,6 km/h (3 Bft) 94,59 %
29.03.2017 03:24 10,9 C 10,6 C 8,3 C 83 % 0 lf 1022,7 hPa 0,0 l/m 0 min 0 min 0 W/m 14,6 km/h (3 Bft) 91,49 %
29.03.2017 03:26 10,9 C 10,6 C 8,3 C 83 % 0 lf 1022,6 hPa 0,0 l/m 0 min 0 min 0 W/m 10,5 km/h (2 Bft) 95,74 %
29.03.2017 03:28 10,9 C 10,6 C 8,3 C 83 % 0 lf 1022,6 hPa 0,0 l/m 0 min 0 min 0 W/m 12,6 km/h (3 Bft) 93,48 %
29.03.2017 03:30 10,9 C 10,6 C 8,3 C 83 % 0 lf 1022,7 hPa 0,0 l/m 0 min 0 min 0 W/m 12,6 km/h (3 Bft) 95,74 %
29.03.2017 03:32 10,9 C 10,6 C 8,3 C 83 % 0 lf 1022,6 hPa 0,0 l/m 0 min 0 min 0 W/m 10,5 km/h (2 Bft) 93,62 %
29.03.2017 03:34 10,9 C 10,6 C 8,3 C 83 % 0 lf 1022,6 hPa 0,0 l/m 0 min 0 min 0 W/m 6,3 km/h (2 Bft) 93,62 %
29.03.2017 03:36 10,9 C 10,6 C 8,3 C 83 % 0 lf 1022,6 hPa 0,0 l/m 0 min 0 min 0 W/m 12,6 km/h (3 Bft) 91,49 %
29.03.2017 03:38 10,8 C 10,6 C 8,3 C 83 % 0 lf 1022,6 hPa 0,0 l/m 0 min 0 min 0 W/m 12,6 km/h (3 Bft) 93,62 %
29.03.2017 03:40 10,8 C 10,6 C 8,3 C 83 % 0 lf 1022,7 hPa 0,0 l/m 0 min 0 min 0 W/m 10,5 km/h (2 Bft) 91,30 %
29.03.2017 03:42 10,8 C 10,6 C 8,3 C 83 % 0 lf 1022,6 hPa 0,0 l/m 0 min 0 min 0 W/m 10,5 km/h (2 Bft) 89,36 %
29.03.2017 03:44 10,8 C 10,6 C 8,9 C 83 % 0 lf 1022,6 hPa 0,0 l/m 0 min 0 min 0 W/m 12,6 km/h (3 Bft) 91,49 %
29.03.2017 03:46 10,8 C 10,6 C 8,9 C 84 % 0 lf 1022,6 hPa 0,0 l/m 0 min 0 min 0 W/m 10,5 km/h (2 Bft) 93,62 %
29.03.2017 03:48 10,8 C 11,1 C 8,9 C 84 % 0 lf 1022,7 hPa 0,0 l/m 0 min 0 min 0 W/m 14,6 km/h (3 Bft) 95,74 %
29.03.2017 03:50 10,8 C 11,1 C 9,4 C 84 % 0 lf 1022,7 hPa 0,0 l/m 0 min 0 min 0 W/m 10,5 km/h (2 Bft) 95,74 %
29.03.2017 03:52 10,8 C 11,1 C 9,4 C 84 % 0 lf 1022,7 hPa 0,0 l/m 0 min 0 min 0 W/m 12,6 km/h (3 Bft) 93,48 %
29.03.2017 03:54 10,8 C 11,1 C 9,4 C 84 % 0 lf 1022,7 hPa 0,0 l/m 0 min 0 min 0 W/m 10,5 km/h (2 Bft) 93,62 %
29.03.2017 03:56 10,8 C 11,1 C 9,4 C 84 % 0 lf 1022,7 hPa 0,0 l/m 0 min 0 min 0 W/m 10,5 km/h (2 Bft) 93,62 %
29.03.2017 03:58 10,8 C 11,1 C 9,4 C 84 % 0 lf 1022,7 hPa 0,0 l/m 0 min 0 min 0 W/m 8,4 km/h (2 Bft) 93,62 %
29.03.2017 04:00 10,9 C 11,1 C 9,4 C 84 % 0 lf 1022,7 hPa 0,0 l/m 0 min 0 min 0 W/m 10,5 km/h (2 Bft) 93,62 %
29.03.2017 04:02 10,9 C 11,1 C 9,4 C 84 % 0 lf 1022,6 hPa 0,0 l/m 0 min 0 min 0 W/m 12,6 km/h (3 Bft) 100,00 %
29.03.2017 04:04 10,9 C 11,1 C 9,4 C 84 % 0 lf 1022,5 hPa 0,0 l/m 0 min 0 min 0 W/m 14,6 km/h (3 Bft) 97,83 %
29.03.2017 04:06 10,9 C 11,1 C 9,4 C 84 % 0 lf 1022,5 hPa 0,0 l/m 0 min 0 min 0 W/m 14,6 km/h (3 Bft) 96,15 %
29.03.2017 04:08 10,9 C 11,1 C 9,4 C 84 % 0 lf 1022,6 hPa 0,0 l/m 0 min 0 min 0 W/m 10,5 km/h (2 Bft) 93,62 %
29.03.2017 04:10 10,9 C 11,1 C 9,4 C 84 % 0 lf 1022,6 hPa 0,0 l/m 0 min 0 min 0 W/m 12,6 km/h (3 Bft) 93,62 %
29.03.2017 04:12 10,9 C 10,6 C 9,4 C 84 % 0 lf 1022,6 hPa 0,0 l/m 0 min 0 min 0 W/m 10,5 km/h (2 Bft) 95,74 %
29.03.2017 04:14 10,9 C 10,6 C 8,9 C 84 % 0 lf 1022,6 hPa 0,0 l/m 0 min 0 min 0 W/m 12,6 km/h (3 Bft) 93,62 %
29.03.2017 04:16 10,9 C 10,6 C 8,9 C 84 % 0 lf 1022,7 hPa 0,0 l/m 0 min 0 min 0 W/m 14,6 km/h (3 Bft) 95,65 %
29.03.2017 04:18 10,9 C 10,6 C 8,9 C 84 % 0 lf 1022,6 hPa 0,0 l/m 0 min 0 min 0 W/m 12,6 km/h (3 Bft) 95,74 %
29.03.2017 04:20 10,9 C 10,6 C 8,9 C 84 % 0 lf 1022,7 hPa 0,0 l/m 0 min 0 min 0 W/m 12,6 km/h (3 Bft) 97,87 %
29.03.2017 04:22 10,9 C 10,6 C 8,9 C 84 % 0 lf 1022,7 hPa 0,0 l/m 0 min 0 min 0 W/m 14,6 km/h (3 Bft) 94,44 %
29.03.2017 04:24 10,9 C 10,6 C 8,9 C 84 % 0 lf 1022,6 hPa 0,0 l/m 0 min 0 min 0 W/m 10,5 km/h (2 Bft) 93,62 %
29.03.2017 04:26 10,9 C 10,6 C 8,9 C 84 % 0 lf 1022,6 hPa 0,0 l/m 0 min 0 min 0 W/m 14,6 km/h (3 Bft) 100,00 %
29.03.2017 04:28 10,8 C 10,6 C 8,3 C 84 % 0 lf 1022,6 hPa 0,0 l/m 0 min 0 min 0 W/m 10,5 km/h (2 Bft) 97,87 %
29.03.2017 04:30 10,8 C 10,6 C 8,3 C 84 % 0 lf 1022,6 hPa 0,0 l/m 0 min 0 min 0 W/m 10,5 km/h (2 Bft) 95,65 %
29.03.2017 04:32 10,8 C 10,6 C 8,3 C 84 % 0 lf 1022,6 hPa 0,0 l/m 0 min 0 min 0 W/m 10,5 km/h (2 Bft) 89,36 %
29.03.2017 04:34 10,8 C 10,6 C 8,3 C 84 % 0 lf 1022,6 hPa 0,0 l/m 0 min 0 min 0 W/m 12,6 km/h (3 Bft) 97,87 %
29.03.2017 04:36 10,8 C 10,0 C 8,3 C 84 % 0 lf 1022,7 hPa 0,0 l/m 0 min 0 min 0 W/m 10,5 km/h (2 Bft) 95,74 %
29.03.2017 04:38 10,8 C 10,0 C 8,3 C 84 % 0 lf 1022,6 hPa 0,0 l/m 0 min 0 min 0 W/m 8,4 km/h (2 Bft) 95,74 %
29.03.2017 04:40 10,8 C 10,0 C 8,3 C 84 % 0 lf 1022,6 hPa 0,0 l/m 0 min 0 min 0 W/m 10,5 km/h (2 Bft) 93,62 %
29.03.2017 04:42 10,7 C 10,0 C 8,3 C 84 % 0 lf 1022,7 hPa 0,0 l/m 0 min 0 min 0 W/m 10,5 km/h (2 Bft) 97,83 %
29.03.2017 04:44 10,7 C 10,0 C 8,3 C 84 % 0 lf 1022,7 hPa 0,0 l/m 0 min 0 min 0 W/m 10,5 km/h (2 Bft) 97,87 %
29.03.2017 04:46 10,7 C 10,0 C 8,3 C 84 % 0 lf 1022,7 hPa 0,0 l/m 0 min 0 min 0 W/m 8,4 km/h (2 Bft) 97,87 %
29.03.2017 04:48 10,7 C 10,0 C 7,8 C 84 % 0 lf 1022,7 hPa 0,0 l/m 0 min 0 min 0 W/m 8,4 km/h (2 Bft) 100,00 %
29.03.2017 04:50 10,7 C 10,0 C 7,8 C 84 % 0 lf 1022,7 hPa 0,0 l/m 0 min 0 min 0 W/m 8,4 km/h (2 Bft) 97,87 %
29.03.2017 04:52 10,7 C 10,0 C 7,8 C 84 % 0 lf 1022,7 hPa 0,0 l/m 0 min 0 min 0 W/m 6,3 km/h (2 Bft) 100,00 %
29.03.2017 04:54 10,6 C 10,0 C 7,2 C 84 % 0 lf 1022,7 hPa 0,0 l/m 0 min 0 min 0 W/m 8,4 km/h (2 Bft) 97,87 %
29.03.2017 04:56 10,6 C 10,0 C 7,2 C 84 % 0 lf 1022,6 hPa 0,0 l/m 0 min 0 min 0 W/m 6,3 km/h (2 Bft) 100,00 %
29.03.2017 04:58 10,6 C 9,4 C 7,2 C 84 % 0 lf 1022,6 hPa 0,0 l/m 0 min 0 min 0 W/m 8,4 km/h (2 Bft) 100,00 %
29.03.2017 05:00 10,6 C 9,4 C 7,2 C 84 % 0 lf 1022,6 hPa 0,0 l/m 0 min 0 min 0 W/m 8,4 km/h (2 Bft) 100,00 %
29.03.2017 05:02 10,5 C 9,4 C 7,2 C 84 % 0 lf 1022,7 hPa 0,0 l/m 0 min 0 min 0 W/m 8,4 km/h (2 Bft) 100,00 %
29.03.2017 05:04 10,4 C 9,4 C 7,2 C 84 % 0 lf 1022,7 hPa 0,0 l/m 0 min 0 min 0 W/m 10,5 km/h (2 Bft) 100,00 %
29.03.2017 05:06 10,4 C 9,4 C 7,2 C 84 % 0 lf 1022,6 hPa 0,0 l/m 0 min 0 min 0 W/m 8,4 km/h (2 Bft) 100,00 %
29.03.2017 05:08 10,4 C 9,4 C 7,2 C 84 % 0 lf 1022,7 hPa 0,0 l/m 0 min 0 min 0 W/m 12,6 km/h (3 Bft) 100,00 %
29.03.2017 05:10 10,3 C 9,4 C 7,2 C 84 % 0 lf 1022,7 hPa 0,0 l/m 0 min 0 min 0 W/m 8,4 km/h (2 Bft) 97,87 %
29.03.2017 05:12 10,3 C 9,4 C 7,2 C 84 % 0 lf 1022,7 hPa 0,0 l/m 0 min 0 min 0 W/m 8,4 km/h (2 Bft) 97,87 %
29.03.2017 05:14 10,3 C 9,4 C 7,2 C 85 % 0 lf 1022,7 hPa 0,0 l/m 0 min 0 min 0 W/m 8,4 km/h (2 Bft) 100,00 %
29.03.2017 05:16 10,3 C 10,0 C 7,8 C 85 % 0 lf 1022,6 hPa 0,0 l/m 0 min 0 min 0 W/m 10,5 km/h (2 Bft) 97,83 %
29.03.2017 05:18 10,2 C 10,0 C 7,8 C 85 % 0 lf 1022,6 hPa 0,0 l/m 0 min 0 min 0 W/m 6,3 km/h (2 Bft) 100,00 %
29.03.2017 05:20 10,2 C 10,0 C 7,8 C 85 % 0 lf 1022,6 hPa 0,0 l/m 0 min 0 min 0 W/m 8,4 km/h (2 Bft) 100,00 %
29.03.2017 05:22 10,2 C 10,0 C 7,8 C 85 % 0 lf 1022,6 hPa 0,0 l/m 0 min 0 min 0 W/m 8,4 km/h (2 Bft) 97,87 %
29.03.2017 05:24 10,2 C 10,0 C 7,8 C 85 % 0 lf 1022,6 hPa 0,0 l/m 0 min 0 min 0 W/m 14,6 km/h (3 Bft) 100,00 %
29.03.2017 05:26 10,2 C 10,0 C 7,8 C 85 % 0 lf 1022,7 hPa 0,0 l/m 0 min 0 min 0 W/m 10,5 km/h (2 Bft) 100,00 %
29.03.2017 05:28 10,2 C 10,0 C 8,3 C 86 % 0 lf 1022,6 hPa 0,0 l/m 0 min 0 min 0 W/m 12,6 km/h (3 Bft) 100,00 %
29.03.2017 05:30 10,2 C 10,0 C 7,8 C 86 % 0 lf 1022,6 hPa 0,0 l/m 0 min 0 min 0 W/m 10,5 km/h (2 Bft) 100,00 %
29.03.2017 05:32 10,1 C 10,0 C 8,3 C 86 % 0 lf 1022,5 hPa 0,0 l/m 0 min 0 min 0 W/m 10,5 km/h (2 Bft) 100,00 %
29.03.2017 05:34 10,1 C 10,0 C 8,3 C 86 % 0 lf 1022,5 hPa 0,0 l/m 0 min 0 min 0 W/m 10,5 km/h (2 Bft) 97,87 %
29.03.2017 05:36 10,1 C 10,0 C 8,3 C 86 % 0 lf 1022,6 hPa 0,0 l/m 0 min 0 min 0 W/m 10,5 km/h (2 Bft) 97,87 %
29.03.2017 05:38 10,1 C 10,0 C 8,3 C 86 % 0 lf 1022,6 hPa 0,0 l/m 0 min 0 min 0 W/m 12,6 km/h (3 Bft) 95,74 %
29.03.2017 05:40 10,1 C 10,0 C 8,3 C 86 % 0 lf 1022,6 hPa 0,0 l/m 0 min 0 min 0 W/m 10,5 km/h (2 Bft) 100,00 %
29.03.2017 05:42 10,1 C 10,0 C 8,3 C 87 % 0 lf 1022,6 hPa 0,0 l/m 0 min 0 min 0 W/m 8,4 km/h (2 Bft) 97,87 %
29.03.2017 05:44 10,1 C 10,0 C 8,3 C 87 % 0 lf 1022,6 hPa 0,0 l/m 0 min 0 min 0 W/m 8,4 km/h (2 Bft) 100,00 %
29.03.2017 05:46 10,1 C 10,0 C 8,3 C 87 % 0 lf 1022,5 hPa 0,0 l/m 0 min 0 min 0 W/m 8,4 km/h (2 Bft) 97,87 %
29.03.2017 05:48 10,1 C 10,0 C 8,3 C 87 % 0 lf 1022,5 hPa 0,0 l/m 0 min 0 min 0 W/m 10,5 km/h (2 Bft) 100,00 %
29.03.2017 05:50 10,1 C 10,0 C 8,3 C 87 % 0 lf 1022,5 hPa 0,0 l/m 0 min 0 min 0 W/m 10,5 km/h (2 Bft) 95,74 %
29.03.2017 05:52 10,1 C 10,0 C 8,3 C 87 % 0 lf 1022,5 hPa 0,0 l/m 0 min 0 min 0 W/m 8,4 km/h (2 Bft) 93,88 %
29.03.2017 05:54 10,1 C 10,0 C 8,3 C 87 % 0 lf 1022,5 hPa 0,0 l/m 0 min 0 min 0 W/m 10,5 km/h (2 Bft) 95,74 %
29.03.2017 05:56 10,1 C 10,0 C 8,3 C 87 % 0 lf 1022,4 hPa 0,0 l/m 0 min 0 min 0 W/m 10,5 km/h (2 Bft) 93,62 %
29.03.2017 05:58 10,1 C 10,0 C 7,8 C 87 % 0 lf 1022,4 hPa 0,0 l/m 0 min 0 min 0 W/m 8,4 km/h (2 Bft) 91,43 %
29.03.2017 06:00 10,1 C 10,0 C 7,8 C 87 % 0 lf 1022,4 hPa 0,0 l/m 0 min 0 min 0 W/m 8,4 km/h (2 Bft) 93,62 %
29.03.2017 06:02 10,1 C 10,0 C 7,8 C 87 % 0 lf 1022,4 hPa 0,0 l/m 0 min 0 min 0 W/m 10,5 km/h (2 Bft) 93,62 %
29.03.2017 06:04 10,1 C 10,0 C 7,8 C 87 % 0 lf 1022,5 hPa 0,0 l/m 0 min 0 min 0 W/m 10,5 km/h (2 Bft) 94,83 %
29.03.2017 06:06 10,1 C 10,0 C 7,8 C 87 % 0 lf 1022,4 hPa 0,0 l/m 0 min 0 min 0 W/m 8,4 km/h (2 Bft) 93,62 %
29.03.2017 06:08 10,1 C 10,0 C 7,8 C 87 % 0 lf 1022,5 hPa 0,0 l/m 0 min 0 min 0 W/m 8,4 km/h (2 Bft) 94,44 %
29.03.2017 06:10 10,1 C 10,0 C 7,8 C 87 % 0 lf 1022,5 hPa 0,0 l/m 0 min 0 min 0 W/m 12,6 km/h (3 Bft) 95,74 %
29.03.2017 06:12 10,1 C 10,0 C 7,8 C 87 % 0 lf 1022,5 hPa 0,0 l/m 0 min 0 min 0 W/m 8,4 km/h (2 Bft) 91,49 %
29.03.2017 06:14 10,1 C 10,0 C 7,8 C 87 % 0 lf 1022,5 hPa 0,0 l/m 0 min 0 min 0 W/m 10,5 km/h (2 Bft) 91,49 %
29.03.2017 06:16 10,1 C 10,0 C 7,8 C 87 % 0 lf 1022,5 hPa 0,0 l/m 0 min 0 min 0 W/m 14,6 km/h (3 Bft) 95,65 %
29.03.2017 06:18 10,1 C 10,0 C 7,8 C 87 % 0 lf 1022,5 hPa 0,0 l/m 0 min 0 min 0 W/m 12,6 km/h (3 Bft) 93,62 %
29.03.2017 06:20 10,0 C 10,0 C 7,8 C 87 % 0 lf 1022,6 hPa 0,0 l/m 0 min 0 min 0 W/m 14,6 km/h (3 Bft) 91,49 %
29.03.2017 06:22 10,0 C 10,0 C 7,8 C 87 % 0 lf 1022,5 hPa 0,0 l/m 0 min 0 min 0 W/m 16,7 km/h (3 Bft) 93,62 %
29.03.2017 06:24 10,0 C 10,0 C 7,8 C 87 % 0 lf 1022,5 hPa 0,0 l/m 0 min 0 min 0 W/m 12,6 km/h (3 Bft) 93,62 %
29.03.2017 06:26 10,0 C 10,0 C 7,8 C 87 % 0 lf 1022,5 hPa 0,0 l/m 0 min 0 min 0 W/m 14,6 km/h (3 Bft) 93,62 %
29.03.2017 06:28 10,0 C 10,0 C 7,8 C 87 % 0 lf 1022,4 hPa 0,0 l/m 0 min 0 min 0 W/m 12,6 km/h (3 Bft) 93,48 %
29.03.2017 06:30 10,0 C 10,0 C 8,3 C 87 % 0 lf 1022,4 hPa 0,0 l/m 0 min 0 min 0 W/m 14,6 km/h (3 Bft) 80,85 %
29.03.2017 06:32 10,0 C 10,0 C 8,3 C 87 % 0 lf 1022,5 hPa 0,0 l/m 0 min 0 min 0 W/m 12,6 km/h (3 Bft) 93,62 %
29.03.2017 06:34 10,0 C 10,0 C 8,3 C 87 % 0 lf 1022,5 hPa 0,0 l/m 0 min 0 min 0 W/m 12,6 km/h (3 Bft) 93,62 %
29.03.2017 06:36 10,0 C 10,0 C 8,3 C 87 % 0 lf 1022,4 hPa 0,0 l/m 0 min 0 min 0 W/m 18,8 km/h (3 Bft) 95,74 %
29.03.2017 06:38 10,0 C 10,0 C 8,3 C 87 % 0 lf 1022,4 hPa 0,0 l/m 0 min 0 min 0 W/m 14,6 km/h (3 Bft) 95,74 %
29.03.2017 06:40 10,1 C 10,0 C 8,3 C 87 % 0 lf 1022,4 hPa 0,0 l/m 0 min 0 min 0 W/m 12,6 km/h (3 Bft) 95,65 %
29.03.2017 06:42 10,1 C 10,0 C 8,3 C 87 % 0 lf 1022,4 hPa 0,0 l/m 0 min 0 min 0 W/m 16,7 km/h (3 Bft) 95,74 %
29.03.2017 06:44 10,1 C 10,6 C 8,9 C 87 % 0 lf 1022,3 hPa 0,0 l/m 0 min 0 min 0 W/m 14,6 km/h (3 Bft) 95,74 %
29.03.2017 06:46 10,1 C 10,6 C 8,9 C 87 % 0 lf 1022,2 hPa 0,0 l/m 0 min 0 min 0 W/m 20,9 km/h (4 Bft) 91,49 %
29.03.2017 06:48 10,1 C 10,6 C 8,3 C 87 % 0 lf 1022,4 hPa 0,0 l/m 0 min 0 min 0 W/m 14,6 km/h (3 Bft) 93,62 %
29.03.2017 06:50 10,1 C 10,6 C 8,3 C 87 % 0 lf 1022,4 hPa 0,0 l/m 0 min 0 min 0 W/m 12,6 km/h (3 Bft) 98,28 %
29.03.2017 06:52 10,1 C 10,0 C 8,3 C 87 % 0 lf 1022,4 hPa 0,0 l/m 0 min 0 min 0 W/m 10,5 km/h (2 Bft) 94,29 %
29.03.2017 06:54 10,1 C 10,0 C 8,3 C 87 % 0 lf 1022,5 hPa 0,0 l/m 0 min 0 min 0 W/m 12,6 km/h (3 Bft) 93,62 %
29.03.2017 06:56 10,1 C 10,0 C 8,3 C 87 % 0 lf 1022,5 hPa 0,0 l/m 0 min 0 min 0 W/m 10,5 km/h (2 Bft) 97,87 %
29.03.2017 06:58 10,1 C 10,0 C 8,3 C 87 % 0 lf 1022,5 hPa 0,0 l/m 0 min 0 min 0 W/m 16,7 km/h (3 Bft) 97,87 %
29.03.2017 07:00 10,1 C 10,0 C 8,3 C 87 % 0 lf 1022,5 hPa 0,0 l/m 0 min 0 min 0 W/m 10,5 km/h (2 Bft) 93,62 %
29.03.2017 07:02 10,1 C 10,0 C 8,3 C 87 % 0 lf 1022,5 hPa 0,0 l/m 0 min 0 min 0 W/m 18,8 km/h (3 Bft) 97,87 %
29.03.2017 07:04 10,1 C 10,0 C 7,8 C 87 % 0 lf 1022,5 hPa 0,0 l/m 0 min 0 min 5 W/m 14,6 km/h (3 Bft) 100,00 %
29.03.2017 07:06 10,1 C 10,0 C 7,8 C 87 % 0 lf 1022,6 hPa 0,0 l/m 0 min 0 min 5 W/m 16,7 km/h (3 Bft) 97,87 %
29.03.2017 07:08 10,1 C 10,0 C 7,8 C 87 % 0 lf 1022,5 hPa 0,0 l/m 0 min 0 min 5 W/m 12,6 km/h (3 Bft) 95,74 %
29.03.2017 07:10 10,1 C 10,0 C 7,8 C 87 % 0 lf 1022,6 hPa 0,0 l/m 0 min 0 min 5 W/m 16,7 km/h (3 Bft) 100,00 %
29.03.2017 07:12 10,1 C 10,0 C 7,8 C 87 % 0 lf 1022,7 hPa 0,0 l/m 0 min 0 min 6 W/m 18,8 km/h (3 Bft) 95,74 %
29.03.2017 07:14 10,1 C 10,0 C 7,8 C 87 % 0 lf 1022,6 hPa 0,0 l/m 0 min 0 min 7 W/m 14,6 km/h (3 Bft) 97,87 %
29.03.2017 07:16 10,1 C 10,0 C 7,8 C 87 % 0 lf 1022,6 hPa 0,0 l/m 0 min 0 min 7 W/m 16,7 km/h (3 Bft) 95,65 %
29.03.2017 07:18 10,0 C 10,0 C 8,3 C 87 % 0 lf 1022,7 hPa 0,0 l/m 0 min 0 min 9 W/m 14,6 km/h (3 Bft) 97,87 %
29.03.2017 07:20 10,0 C 10,0 C 8,3 C 87 % 0 lf 1022,7 hPa 0,0 l/m 0 min 0 min 10 W/m 18,8 km/h (3 Bft) 96,61 %
29.03.2017 07:22 10,0 C 10,0 C 8,3 C 87 % 0 lf 1022,7 hPa 0,0 l/m 0 min 0 min 11 W/m 10,5 km/h (2 Bft) 94,29 %
29.03.2017 07:24 10,0 C 10,0 C 8,3 C 87 % 0 lf 1022,7 hPa 0,0 l/m 0 min 0 min 11 W/m 12,6 km/h (3 Bft) 97,87 %
29.03.2017 07:26 10,0 C 10,0 C 8,3 C 87 % 0 lf 1022,7 hPa 0,0 l/m 0 min 0 min 11 W/m 8,4 km/h (2 Bft) 97,83 %
29.03.2017 07:28 10,0 C 10,0 C 8,3 C 87 % 0 lf 1022,6 hPa 0,0 l/m 0 min 0 min 11 W/m 12,6 km/h (3 Bft) 95,74 %
29.03.2017 07:30 9,9 C 10,0 C 8,3 C 87 % 0 lf 1022,7 hPa 0,0 l/m 0 min 0 min 11 W/m 14,6 km/h (3 Bft) 93,62 %
29.03.2017 07:32 10,0 C 10,0 C 8,3 C 87 % 0 lf 1022,7 hPa 0,0 l/m 0 min 0 min 12 W/m 18,8 km/h (3 Bft) 97,87 %
29.03.2017 07:34 9,9 C 10,0 C 8,3 C 87 % 0 lf 1022,7 hPa 0,0 l/m 0 min 0 min 14 W/m 16,7 km/h (3 Bft) 97,87 %
29.03.2017 07:36 9,9 C 10,0 C 8,3 C 88 % 0 lf 1022,7 hPa 0,0 l/m 2 min 0 min 20 W/m 14,6 km/h (3 Bft) 97,87 %
29.03.2017 07:38 9,9 C 10,0 C 8,3 C 88 % 0 lf 1022,7 hPa 0,0 l/m 2 min 0 min 23 W/m 12,6 km/h (3 Bft) 97,83 %
29.03.2017 07:40 10,0 C 10,0 C 8,3 C 88 % 0 lf 1022,6 hPa 0,0 l/m 2 min 0 min 29 W/m 12,6 km/h (3 Bft) 97,87 %
29.03.2017 07:42 10,0 C 10,0 C 8,3 C 88 % 0 lf 1022,7 hPa 0,0 l/m 2 min 0 min 31 W/m 12,6 km/h (3 Bft) 97,87 %
29.03.2017 07:44 9,9 C 10,0 C 8,3 C 88 % 0 lf 1022,7 hPa 0,0 l/m 0 min 0 min 30 W/m 16,7 km/h (3 Bft) 97,87 %
29.03.2017 07:46 10,0 C 10,0 C 8,3 C 87 % 0 lf 1022,6 hPa 0,0 l/m 0 min 0 min 28 W/m 10,5 km/h (2 Bft) 93,62 %
29.03.2017 07:48 10,0 C 10,0 C 8,3 C 87 % 0 lf 1022,7 hPa 0,0 l/m 0 min 0 min 30 W/m 14,6 km/h (3 Bft) 95,74 %
29.03.2017 07:50 10,0 C 10,0 C 8,3 C 87 % 0 lf 1022,7 hPa 0,0 l/m 0 min 0 min 29 W/m 14,6 km/h (3 Bft) 96,55 %
29.03.2017 07:52 10,0 C 10,0 C 8,3 C 87 % 0 lf 1022,7 hPa 0,0 l/m 0 min 0 min 30 W/m 18,8 km/h (3 Bft) 94,29 %
29.03.2017 07:54 10,0 C 10,0 C 8,3 C 87 % 0 lf 1022,7 hPa 0,0 l/m 0 min 0 min 37 W/m 18,8 km/h (3 Bft) 97,87 %
29.03.2017 07:56 10,0 C 10,6 C 8,3 C 87 % 0 lf 1022,7 hPa 0,0 l/m 2 min 0 min 52 W/m 10,5 km/h (2 Bft) 93,62 %
29.03.2017 07:58 10,0 C 10,6 C 8,9 C 87 % 0 lf 1022,7 hPa 0,0 l/m 2 min 0 min 59 W/m 23,0 km/h (4 Bft) 97,87 %
29.03.2017 08:00 10,0 C 10,6 C 8,9 C 87 % 0 lf 1022,7 hPa 0,0 l/m 2 min 0 min 56 W/m 10,5 km/h (2 Bft) 95,74 %
29.03.2017 08:02 10,0 C 10,6 C 8,9 C 87 % 0 lf 1022,8 hPa 0,0 l/m 2 min 0 min 58 W/m 14,6 km/h (3 Bft) 93,48 %
29.03.2017 08:04 10,1 C 11,1 C 8,9 C 87 % 0 lf 1022,8 hPa 0,0 l/m 2 min 0 min 69 W/m 12,6 km/h (3 Bft) 95,74 %
29.03.2017 08:06 10,1 C 11,1 C 9,4 C 87 % 0 lf 1022,8 hPa 0,0 l/m 2 min 0 min 78 W/m 14,6 km/h (3 Bft) 95,74 %
29.03.2017 08:08 10,1 C 11,1 C 9,4 C 87 % 0 lf 1022,8 hPa 0,0 l/m 2 min 0 min 82 W/m 10,5 km/h (2 Bft) 93,62 %
29.03.2017 08:10 10,1 C 11,1 C 9,4 C 87 % 0 lf 1022,9 hPa 0,0 l/m 2 min 0 min 96 W/m 10,5 km/h (2 Bft) 93,62 %
29.03.2017 08:12 10,2 C 11,1 C 9,4 C 88 % 0 lf 1022,9 hPa 0,0 l/m 2 min 0 min 88 W/m 16,7 km/h (3 Bft) 93,62 %
29.03.2017 08:14 10,2 C 11,1 C 9,4 C 88 % 0 lf 1022,8 hPa 0,0 l/m 0 min 0 min 68 W/m 16,7 km/h (3 Bft) 93,48 %
29.03.2017 08:16 10,2 C 11,1 C 9,4 C 87 % 0 lf 1022,8 hPa 0,0 l/m 0 min 0 min 63 W/m 10,5 km/h (2 Bft) 93,62 %
29.03.2017 08:18 10,3 C 11,1 C 9,4 C 87 % 0 lf 1022,9 hPa 0,0 l/m 0 min 0 min 59 W/m 16,7 km/h (3 Bft) 95,83 %
29.03.2017 08:20 10,3 C 11,1 C 9,4 C 87 % 0 lf 1022,9 hPa 0,0 l/m 0 min 0 min 66 W/m 16,7 km/h (3 Bft) 95,65 %
29.03.2017 08:22 10,3 C 11,7 C 9,4 C 87 % 0 lf 1023,0 hPa 0,0 l/m 0 min 0 min 74 W/m 14,6 km/h (3 Bft) 93,62 %
29.03.2017 08:24 10,4 C 11,7 C 10,0 C 87 % 0 lf 1022,9 hPa 0,0 l/m 0 min 0 min 77 W/m 16,7 km/h (3 Bft) 95,74 %
29.03.2017 08:26 10,4 C 11,7 C 10,0 C 87 % 0 lf 1022,9 hPa 0,0 l/m 0 min 0 min 84 W/m 16,7 km/h (3 Bft) 94,64 %
29.03.2017 08:28 10,4 C 11,7 C 10,0 C 87 % 0 lf 1022,9 hPa 0,0 l/m 0 min 0 min 85 W/m 12,6 km/h (3 Bft) 97,87 %
29.03.2017 08:30 10,5 C 11,7 C 10,0 C 87 % 0 lf 1022,9 hPa 0,0 l/m 0 min 0 min 81 W/m 16,7 km/h (3 Bft) 100,00 %
29.03.2017 08:32 10,5 C 11,7 C 10,0 C 87 % 0 lf 1023,0 hPa 0,0 l/m 0 min 0 min 83 W/m 14,6 km/h (3 Bft) 100,00 %
29.03.2017 08:34 10,6 C 12,2 C 10,0 C 86 % 0 lf 1023,0 hPa 0,0 l/m 0 min 0 min 87 W/m 16,7 km/h (3 Bft) 95,65 %
29.03.2017 08:36 10,6 C 12,2 C 10,0 C 86 % 0 lf 1023,1 hPa 0,0 l/m 0 min 0 min 92 W/m 16,7 km/h (3 Bft) 100,00 %
29.03.2017 08:38 10,7 C 12,2 C 10,6 C 86 % 0 lf 1023,1 hPa 0,0 l/m 0 min 0 min 99 W/m 18,8 km/h (3 Bft) 95,74 %
29.03.2017 08:40 10,7 C 12,2 C 10,6 C 86 % 0 lf 1023,1 hPa 0,0 l/m 0 min 0 min 99 W/m 16,7 km/h (3 Bft) 100,00 %
29.03.2017 08:42 10,7 C 12,2 C 10,6 C 86 % 0 lf 1023,1 hPa 0,0 l/m 0 min 0 min 85 W/m 14,6 km/h (3 Bft) 100,00 %
29.03.2017 08:44 10,8 C 12,2 C 10,6 C 86 % 0 lf 1023,2 hPa 0,0 l/m 0 min 0 min 87 W/m 16,7 km/h (3 Bft) 97,87 %
29.03.2017 08:46 10,8 C 12,2 C 10,6 C 86 % 0 lf 1023,2 hPa 0,0 l/m 0 min 0 min 96 W/m 23,0 km/h (4 Bft) 97,83 %
29.03.2017 08:48 10,9 C 12,2 C 10,6 C 86 % 0 lf 1023,2 hPa 0,0 l/m 0 min 0 min 106 W/m 18,8 km/h (3 Bft) 95,74 %
29.03.2017 08:50 10,9 C 12,2 C 10,6 C 85 % 0 lf 1023,1 hPa 0,0 l/m 0 min 0 min 101 W/m 16,7 km/h (3 Bft) 95,74 %
29.03.2017 08:52 11,0 C 12,8 C 10,6 C 85 % 0 lf 1023,2 hPa 0,0 l/m 0 min 0 min 96 W/m 18,8 km/h (3 Bft) 97,37 %
29.03.2017 08:54 11,1 C 12,8 C 11,1 C 85 % 0 lf 1023,2 hPa 0,0 l/m 0 min 0 min 95 W/m 16,7 km/h (3 Bft) 97,87 %
29.03.2017 08:56 11,1 C 12,8 C 11,1 C 85 % 0 lf 1023,2 hPa 0,0 l/m 0 min 0 min 96 W/m 18,8 km/h (3 Bft) 93,48 %
29.03.2017 08:58 11,2 C 12,8 C 11,1 C 85 % 0 lf 1023,2 hPa 0,0 l/m 0 min 0 min 98 W/m 20,9 km/h (4 Bft) 97,87 %
29.03.2017 09:00 11,2 C 12,8 C 11,1 C 84 % 0 lf 1023,1 hPa 0,0 l/m 0 min 0 min 122 W/m 16,7 km/h (3 Bft) 95,74 %
29.03.2017 09:02 11,3 C 13,3 C 11,1 C 84 % 0 lf 1023,1 hPa 0,0 l/m 2 min 0 min 148 W/m 16,7 km/h (3 Bft) 95,74 %
29.03.2017 09:04 11,3 C 13,3 C 11,7 C 84 % 0 lf 1023,1 hPa 0,0 l/m 2 min 0 min 158 W/m 16,7 km/h (3 Bft) 93,62 %
29.03.2017 09:06 11,4 C 13,9 C 11,7 C 84 % 0 lf 1023,1 hPa 0,0 l/m 2 min 0 min 166 W/m 23,0 km/h (4 Bft) 89,36 %
29.03.2017 09:08 11,4 C 13,9 C 11,7 C 84 % 0 lf 1023,1 hPa 0,0 l/m 0 min 0 min 136 W/m 16,7 km/h (3 Bft) 95,65 %
29.03.2017 09:10 11,5 C 13,9 C 11,7 C 84 % 0 lf 1023,2 hPa 0,0 l/m 0 min 0 min 108 W/m 20,9 km/h (4 Bft) 95,74 %
29.03.2017 09:12 11,6 C 13,3 C 11,1 C 84 % 0 lf 1023,1 hPa 0,0 l/m 0 min 2 min 114 W/m 23,0 km/h (4 Bft) 95,74 %
29.03.2017 09:14 11,6 C 13,3 C 11,1 C 83 % 13 lf 1023,2 hPa 0,0 l/m 0 min 2 min 131 W/m 18,8 km/h (3 Bft) 91,49 %
29.03.2017 09:16 11,7 C 13,3 C 10,6 C 83 % 1 lf 1023,2 hPa 0,0 l/m 0 min 2 min 148 W/m 18,8 km/h (3 Bft) 93,62 %
29.03.2017 09:18 11,7 C 13,9 C 11,1 C 83 % 0 lf 1023,2 hPa 0,0 l/m 2 min 0 min 195 W/m 16,7 km/h (3 Bft) 93,62 %
29.03.2017 09:20 11,7 C 13,9 C 11,7 C 83 % 0 lf 1023,2 hPa 0,0 l/m 2 min 0 min 175 W/m 20,9 km/h (4 Bft) 93,48 %
29.03.2017 09:22 11,8 C 14,4 C 11,7 C 83 % 0 lf 1023,1 hPa 0,0 l/m 2 min 0 min 178 W/m 14,6 km/h (3 Bft) 89,36 %
29.03.2017 09:24 11,8 C 15,0 C 11,7 C 83 % 0 lf 1023,1 hPa 0,0 l/m 2 min 0 min 220 W/m 20,9 km/h (4 Bft) 95,74 %
29.03.2017 09:26 11,9 C 14,4 C 12,2 C 83 % 0 lf 1023,1 hPa 0,0 l/m 0 min 0 min 154 W/m 18,8 km/h (3 Bft) 95,74 %
29.03.2017 09:28 11,9 C 14,4 C 12,2 C 83 % 0 lf 1023,1 hPa 0,0 l/m 0 min 0 min 159 W/m 20,9 km/h (4 Bft) 95,74 %
29.03.2017 09:30 12,0 C 14,4 C 12,2 C 83 % 0 lf 1023,1 hPa 0,0 l/m 2 min 0 min 184 W/m 23,0 km/h (4 Bft) 95,65 %
29.03.2017 09:32 12,1 C 14,4 C 12,2 C 82 % 0 lf 1023,1 hPa 0,0 l/m 2 min 0 min 207 W/m 18,8 km/h (3 Bft) 93,62 %
29.03.2017 09:34 12,1 C 14,4 C 12,8 C 82 % 0 lf 1023,1 hPa 0,0 l/m 2 min 0 min 201 W/m 18,8 km/h (3 Bft) 91,49 %
29.03.2017 09:36 12,2 C 14,4 C 12,2 C 82 % 0 lf 1023,0 hPa 0,0 l/m 0 min 0 min 173 W/m 16,7 km/h (3 Bft) 93,62 %
29.03.2017 09:38 12,2 C 14,4 C 12,2 C 82 % 0 lf 1023,1 hPa 0,0 l/m 0 min 0 min 158 W/m 18,8 km/h (3 Bft) 97,87 %
29.03.2017 09:40 12,3 C 14,4 C 12,2 C 81 % 0 lf 1023,1 hPa 0,0 l/m 2 min 0 min 181 W/m 16,7 km/h (3 Bft) 95,74 %
29.03.2017 09:42 12,3 C 15,0 C 12,8 C 81 % 0 lf 1023,1 hPa 0,0 l/m 2 min 0 min 230 W/m 20,9 km/h (4 Bft) 95,65 %
29.03.2017 09:44 12,4 C 16,7 C 12,8 C 81 % 0 lf 1023,2 hPa 0,0 l/m 2 min 0 min 312 W/m 25,1 km/h (4 Bft) 95,74 %
29.03.2017 09:46 12,4 C 15,6 C 12,8 C 81 % 0 lf 1023,2 hPa 0,0 l/m 2 min 0 min 254 W/m 31,4 km/h (5 Bft) 93,62 %
29.03.2017 09:48 12,5 C 15,0 C 12,8 C 81 % 0 lf 1023,3 hPa 0,0 l/m 0 min 0 min 186 W/m 27,2 km/h (4 Bft) 95,74 %
29.03.2017 09:50 12,5 C 15,0 C 12,8 C 80 % 0 lf 1023,3 hPa 0,0 l/m 0 min 0 min 170 W/m 23,0 km/h (4 Bft) 95,74 %
29.03.2017 09:52 12,6 C 15,0 C 12,8 C 80 % 0 lf 1023,2 hPa 0,0 l/m 2 min 0 min 194 W/m 25,1 km/h (4 Bft) 95,74 %
29.03.2017 09:54 12,6 C 15,6 C 13,3 C 80 % 0 lf 1023,3 hPa 0,0 l/m 2 min 0 min 285 W/m 18,8 km/h (3 Bft) 93,48 %
29.03.2017 09:56 12,7 C 16,1 C 13,9 C 80 % 0 lf 1023,3 hPa 0,0 l/m 2 min 0 min 329 W/m 18,8 km/h (3 Bft) 97,87 %
29.03.2017 09:58 12,7 C 15,6 C 13,3 C 80 % 0 lf 1023,3 hPa 0,0 l/m 2 min 0 min 257 W/m 27,2 km/h (4 Bft) 93,62 %
29.03.2017 10:00 12,8 C 15,0 C 12,8 C 79 % 0 lf 1023,3 hPa 0,0 l/m 0 min 0 min 190 W/m 27,2 km/h (4 Bft) 97,87 %
29.03.2017 10:02 12,8 C 15,0 C 13,3 C 79 % 0 lf 1023,4 hPa 0,0 l/m 2 min 0 min 216 W/m 23,0 km/h (4 Bft) 97,87 %
29.03.2017 10:04 12,8 C 15,6 C 13,3 C 79 % 0 lf 1023,5 hPa 0,0 l/m 2 min 0 min 281 W/m 27,2 km/h (4 Bft) 97,87 %
29.03.2017 10:06 12,9 C 16,7 C 13,9 C 79 % 0 lf 1023,4 hPa 0,0 l/m 2 min 0 min 323 W/m 29,3 km/h (5 Bft) 97,83 %
29.03.2017 10:08 12,9 C 16,7 C 13,9 C 79 % 0 lf 1023,3 hPa 0,0 l/m 2 min 0 min 302 W/m 25,1 km/h (4 Bft) 97,87 %
29.03.2017 10:10 13,1 C 16,7 C 13,9 C 79 % 0 lf 1023,4 hPa 0,0 l/m 2 min 0 min 261 W/m 25,1 km/h (4 Bft) 95,74 %
29.03.2017 10:12 13,1 C 16,7 C 13,9 C 78 % 0 lf 1023,5 hPa 0,0 l/m 2 min 0 min 276 W/m 31,4 km/h (5 Bft) 97,87 %
29.03.2017 10:14 13,2 C 17,2 C 14,4 C 78 % 0 lf 1023,4 hPa 0,0 l/m 2 min 0 min 305 W/m 23,0 km/h (4 Bft) 97,87 %
29.03.2017 10:16 13,2 C 17,2 C 14,4 C 78 % 0 lf 1023,4 hPa 0,0 l/m 2 min 0 min 269 W/m 16,7 km/h (3 Bft) 95,74 %
29.03.2017 10:18 13,3 C 17,2 C 14,4 C 78 % 0 lf 1023,4 hPa 0,0 l/m 2 min 0 min 271 W/m 27,2 km/h (4 Bft) 97,83 %
29.03.2017 10:20 13,4 C 17,8 C 15,0 C 78 % 0 lf 1023,5 hPa 0,0 l/m 2 min 0 min 265 W/m 27,2 km/h (4 Bft) 97,87 %
29.03.2017 10:22 13,5 C 20,0 C 16,1 C 78 % 0 lf 1023,5 hPa 0,0 l/m 2 min 0 min 623 W/m 29,3 km/h (5 Bft) 95,74 %
29.03.2017 10:24 13,6 C 18,9 C 16,1 C 77 % 0 lf 1023,5 hPa 0,0 l/m 2 min 0 min 556 W/m 25,1 km/h (4 Bft) 97,87 %
29.03.2017 10:26 13,7 C 18,3 C 15,6 C 77 % 0 lf 1023,6 hPa 0,0 l/m 2 min 0 min 286 W/m 29,3 km/h (5 Bft) 97,87 %
29.03.2017 10:28 13,8 C 17,8 C 15,6 C 77 % 0 lf 1023,6 hPa 0,0 l/m 2 min 0 min 364 W/m 27,2 km/h (4 Bft) 93,62 %
29.03.2017 10:30 13,9 C 17,2 C 15,6 C 76 % 0 lf 1023,6 hPa 0,0 l/m 2 min 0 min 362 W/m 25,1 km/h (4 Bft) 95,65 %
29.03.2017 10:32 13,9 C 17,2 C 15,6 C 76 % 0 lf 1023,6 hPa 0,0 l/m 2 min 0 min 336 W/m 18,8 km/h (3 Bft) 95,74 %
29.03.2017 10:34 14,1 C 17,8 C 15,6 C 76 % 0 lf 1023,6 hPa 0,0 l/m 2 min 0 min 352 W/m 16,7 km/h (3 Bft) 100,00 %
29.03.2017 10:36 14,2 C 17,2 C 15,6 C 76 % 0 lf 1023,6 hPa 0,0 l/m 2 min 0 min 322 W/m 23,0 km/h (4 Bft) 100,00 %
29.03.2017 10:38 14,2 C 17,2 C 15,0 C 75 % 0 lf 1023,5 hPa 0,0 l/m 2 min 0 min 273 W/m 25,1 km/h (4 Bft) 100,00 %
29.03.2017 10:40 14,2 C 17,2 C 15,0 C 75 % 0 lf 1023,6 hPa 0,0 l/m 2 min 0 min 313 W/m 27,2 km/h (4 Bft) 100,00 %
29.03.2017 10:42 14,2 C 17,2 C 15,0 C 74 % 0 lf 1023,6 hPa 0,0 l/m 2 min 0 min 328 W/m 27,2 km/h (4 Bft) 95,74 %
29.03.2017 10:44 14,2 C 16,7 C 15,0 C 75 % 0 lf 1023,6 hPa 0,0 l/m 2 min 0 min 291 W/m 29,3 km/h (5 Bft) 100,00 %
29.03.2017 10:46 14,2 C 16,7 C 15,0 C 74 % 0 lf 1023,7 hPa 0,0 l/m 2 min 0 min 256 W/m 35,6 km/h (5 Bft) 97,87 %
29.03.2017 10:48 14,2 C 16,1 C 15,0 C 74 % 0 lf 1023,7 hPa 0,0 l/m 2 min 0 min 268 W/m 33,5 km/h (5 Bft) 100,00 %
29.03.2017 10:50 14,2 C 15,6 C 14,4 C 74 % 0 lf 1023,7 hPa 0,0 l/m 2 min 0 min 277 W/m 33,5 km/h (5 Bft) 100,00 %
29.03.2017 10:52 14,2 C 15,6 C 14,4 C 74 % 0 lf 1023,7 hPa 0,0 l/m 2 min 0 min 257 W/m 29,3 km/h (5 Bft) 97,83 %
29.03.2017 10:54 14,2 C 16,1 C 14,4 C 74 % 0 lf 1023,7 hPa 0,0 l/m 2 min 0 min 279 W/m 25,1 km/h (4 Bft) 97,87 %
29.03.2017 10:56 14,2 C 16,1 C 15,0 C 75 % 0 lf 1023,7 hPa 0,0 l/m 2 min 0 min 263 W/m 25,1 km/h (4 Bft) 93,62 %
29.03.2017 10:58 14,2 C 16,7 C 15,0 C 75 % 0 lf 1023,7 hPa 0,0 l/m 2 min 0 min 265 W/m 18,8 km/h (3 Bft) 97,87 %
29.03.2017 11:00 14,2 C 16,7 C 15,6 C 75 % 0 lf 1023,7 hPa 0,0 l/m 2 min 0 min 272 W/m 20,9 km/h (4 Bft) 97,87 %
29.03.2017 11:02 14,2 C 16,7 C 15,6 C 75 % 0 lf 1023,7 hPa 0,0 l/m 2 min 0 min 278 W/m 23,0 km/h (4 Bft) 95,74 %
29.03.2017 11:04 14,2 C 16,7 C 15,0 C 75 % 0 lf 1023,8 hPa 0,0 l/m 0 min 0 min 255 W/m 23,0 km/h (4 Bft) 97,83 %
29.03.2017 11:06 14,2 C 16,1 C 15,0 C 74 % 0 lf 1023,7 hPa 0,0 l/m 0 min 0 min 226 W/m 33,5 km/h (5 Bft) 97,87 %
29.03.2017 11:08 14,2 C 15,6 C 14,4 C 74 % 0 lf 1023,8 hPa 0,0 l/m 0 min 0 min 209 W/m 27,2 km/h (4 Bft) 95,74 %
29.03.2017 11:10 14,2 C 15,6 C 14,4 C 74 % 0 lf 1023,8 hPa 0,0 l/m 0 min 0 min 202 W/m 27,2 km/h (4 Bft) 97,87 %
29.03.2017 11:12 14,2 C 15,6 C 14,4 C 74 % 0 lf 1023,9 hPa 0,0 l/m 0 min 0 min 201 W/m 20,9 km/h (4 Bft) 97,87 %
29.03.2017 11:14 14,2 C 15,6 C 15,0 C 75 % 0 lf 1023,8 hPa 0,0 l/m 0 min 0 min 214 W/m 18,8 km/h (3 Bft) 95,74 %
29.03.2017 11:16 14,2 C 16,1 C 15,0 C 75 % 0 lf 1023,9 hPa 0,0 l/m 0 min 0 min 245 W/m 23,0 km/h (4 Bft) 100,00 %
29.03.2017 11:18 14,2 C 16,1 C 15,0 C 75 % 0 lf 1023,9 hPa 0,0 l/m 2 min 0 min 280 W/m 27,2 km/h (4 Bft) 97,87 %
29.03.2017 11:20 14,2 C 16,1 C 15,0 C 74 % 0 lf 1024,0 hPa 0,0 l/m 0 min 0 min 261 W/m 29,3 km/h (5 Bft) 95,74 %
29.03.2017 11:22 14,2 C 15,6 C 14,4 C 74 % 0 lf 1023,9 hPa 0,0 l/m 0 min 0 min 218 W/m 31,4 km/h (5 Bft) 97,87 %
29.03.2017 11:24 14,2 C 15,6 C 14,4 C 74 % 0 lf 1023,9 hPa 0,0 l/m 0 min 0 min 194 W/m 27,2 km/h (4 Bft) 97,87 %
29.03.2017 11:26 14,2 C 15,6 C 14,4 C 74 % 0 lf 1023,9 hPa 0,0 l/m 0 min 0 min 182 W/m 29,3 km/h (5 Bft) 97,87 %
29.03.2017 11:28 14,2 C 15,6 C 14,4 C 74 % 0 lf 1023,9 hPa 0,0 l/m 0 min 0 min 203 W/m 33,5 km/h (5 Bft) 97,83 %
29.03.2017 11:30 14,2 C 15,6 C 14,4 C 74 % 0 lf 1024,0 hPa 0,0 l/m 0 min 0 min 252 W/m 33,5 km/h (5 Bft) 97,87 %
29.03.2017 11:32 14,2 C 15,6 C 15,0 C 74 % 0 lf 1023,9 hPa 0,0 l/m 0 min 0 min 276 W/m 37,7 km/h (5 Bft) 97,87 %
29.03.2017 11:34 14,2 C 16,1 C 15,0 C 74 % 0 lf 1023,9 hPa 0,0 l/m 0 min 0 min 247 W/m 27,2 km/h (4 Bft) 89,36 %
29.03.2017 11:36 14,2 C 16,1 C 15,0 C 75 % 0 lf 1023,9 hPa 0,0 l/m 0 min 0 min 256 W/m 14,6 km/h (3 Bft) 93,62 %
29.03.2017 11:38 14,2 C 16,7 C 15,6 C 75 % 0 lf 1023,9 hPa 0,0 l/m 2 min 0 min 302 W/m 16,7 km/h (3 Bft) 91,49 %
29.03.2017 11:40 14,2 C 16,7 C 16,1 C 75 % 0 lf 1023,9 hPa 0,0 l/m 2 min 0 min 320 W/m 18,8 km/h (3 Bft) 95,65 %
29.03.2017 11:42 14,3 C 16,7 C 16,1 C 75 % 0 lf 1023,9 hPa 0,0 l/m 0 min 0 min 278 W/m 20,9 km/h (4 Bft) 93,62 %
29.03.2017 11:44 14,3 C 16,7 C 15,6 C 75 % 0 lf 1024,0 hPa 0,0 l/m 0 min 0 min 256 W/m 27,2 km/h (4 Bft) 93,62 %
29.03.2017 11:46 14,3 C 16,1 C 15,0 C 74 % 0 lf 1024,0 hPa 0,0 l/m 0 min 0 min 232 W/m 31,4 km/h (5 Bft) 93,62 %
29.03.2017 11:48 14,3 C 16,1 C 15,0 C 74 % 0 lf 1023,9 hPa 0,0 l/m 0 min 0 min 226 W/m 27,2 km/h (4 Bft) 91,49 %
29.03.2017 11:50 14,4 C 16,7 C 15,6 C 75 % 0 lf 1023,9 hPa 0,0 l/m 0 min 0 min 281 W/m 25,1 km/h (4 Bft) 95,74 %
29.03.2017 11:52 14,4 C 16,7 C 15,6 C 74 % 0 lf 1024,0 hPa 0,0 l/m 2 min 0 min 314 W/m 25,1 km/h (4 Bft) 95,65 %
29.03.2017 11:54 14,4 C 16,7 C 15,6 C 74 % 0 lf 1023,9 hPa 0,0 l/m 0 min 0 min 286 W/m 20,9 km/h (4 Bft) 93,62 %
29.03.2017 11:56 14,4 C 16,7 C 15,6 C 74 % 0 lf 1023,9 hPa 0,0 l/m 2 min 0 min 325 W/m 31,4 km/h (5 Bft) 93,62 %
29.03.2017 11:58 14,5 C 16,7 C 16,1 C 74 % 0 lf 1023,9 hPa 0,0 l/m 2 min 0 min 310 W/m 29,3 km/h (5 Bft) 91,49 %
29.03.2017 12:00 14,5 C 16,7 C 15,6 C 74 % 0 lf 1023,9 hPa 0,0 l/m 0 min 0 min 278 W/m 27,2 km/h (4 Bft) 97,87 %
29.03.2017 12:02 14,6 C 16,7 C 15,6 C 75 % 0 lf 1023,9 hPa 0,0 l/m 0 min 0 min 226 W/m 18,8 km/h (3 Bft) 95,65 %
29.03.2017 12:04 14,6 C 16,1 C 15,0 C 74 % 0 lf 1024,0 hPa 0,0 l/m 0 min 0 min 199 W/m 31,4 km/h (5 Bft) 93,62 %
29.03.2017 12:06 14,5 C 15,6 C 15,0 C 74 % 0 lf 1024,1 hPa 0,0 l/m 0 min 0 min 226 W/m 37,7 km/h (5 Bft) 91,49 %
29.03.2017 12:08 14,5 C 16,1 C 15,0 C 74 % 0 lf 1024,1 hPa 0,0 l/m 0 min 0 min 235 W/m 20,9 km/h (4 Bft) 91,49 %
29.03.2017 12:10 14,4 C 15,6 C 15,0 C 74 % 0 lf 1024,0 hPa 0,0 l/m 0 min 0 min 206 W/m 23,0 km/h (4 Bft) 89,36 %
29.03.2017 12:12 14,4 C 15,6 C 15,0 C 75 % 0 lf 1024,1 hPa 0,0 l/m 0 min 0 min 213 W/m 27,2 km/h (4 Bft) 93,62 %
29.03.2017 12:14 14,4 C 15,6 C 14,4 C 74 % 0 lf 1024,2 hPa 0,0 l/m 0 min 0 min 195 W/m 35,6 km/h (5 Bft) 91,30 %
29.03.2017 12:16 14,4 C 15,6 C 14,4 C 75 % 0 lf 1024,2 hPa 0,0 l/m 0 min 0 min 195 W/m 31,4 km/h (5 Bft) 91,49 %
29.03.2017 12:18 14,3 C 15,6 C 15,0 C 75 % 0 lf 1024,2 hPa 0,0 l/m 0 min 0 min 267 W/m 29,3 km/h (5 Bft) 93,62 %
29.03.2017 12:20 14,3 C 15,6 C 15,0 C 75 % 0 lf 1024,2 hPa 0,0 l/m 0 min 0 min 305 W/m 43,9 km/h (6 Bft) 93,62 %
29.03.2017 12:22 14,2 C 15,6 C 15,0 C 76 % 0 lf 1024,2 hPa 0,0 l/m 0 min 0 min 240 W/m 31,4 km/h (5 Bft) 95,74 %
29.03.2017 12:24 14,2 C 15,0 C 14,4 C 76 % 0 lf 1024,2 hPa 0,0 l/m 0 min 0 min 198 W/m 31,4 km/h (5 Bft) 93,62 %
29.03.2017 12:26 14,2 C 14,4 C 13,9 C 76 % 0 lf 1024,3 hPa 0,0 l/m 0 min 0 min 173 W/m 31,4 km/h (5 Bft) 93,48 %
29.03.2017 12:28 14,2 C 14,4 C 13,9 C 77 % 0 lf 1024,3 hPa 0,0 l/m 0 min 0 min 149 W/m 33,5 km/h (5 Bft) 93,62 %
29.03.2017 12:30 14,1 C 14,4 C 13,9 C 77 % 0 lf 1024,3 hPa 0,0 l/m 0 min 0 min 184 W/m 35,6 km/h (5 Bft) 95,74 %
29.03.2017 12:32 14,0 C 14,4 C 13,9 C 77 % 0 lf 1024,3 hPa 0,0 l/m 0 min 0 min 246 W/m 31,4 km/h (5 Bft) 91,49 %
29.03.2017 12:34 13,9 C 15,0 C 14,4 C 78 % 0 lf 1024,3 hPa 0,0 l/m 2 min 0 min 328 W/m 29,3 km/h (5 Bft) 91,49 %
29.03.2017 12:36 13,9 C 15,6 C 15,0 C 79 % 0 lf 1024,3 hPa 0,0 l/m 2 min 0 min 330 W/m 33,5 km/h (5 Bft) 95,74 %
29.03.2017 12:38 13,9 C 15,6 C 15,0 C 79 % 0 lf 1024,3 hPa 0,0 l/m 0 min 0 min 288 W/m 27,2 km/h (4 Bft) 97,83 %
29.03.2017 12:40 13,9 C 15,6 C 15,0 C 79 % 0 lf 1024,2 hPa 0,0 l/m 0 min 0 min 258 W/m 23,0 km/h (4 Bft) 97,87 %
29.03.2017 12:42 13,9 C 15,0 C 15,0 C 79 % 0 lf 1024,3 hPa 0,0 l/m 0 min 0 min 268 W/m 31,4 km/h (5 Bft) 91,49 %
29.03.2017 12:44 13,8 C 15,6 C 14,4 C 79 % 0 lf 1024,3 hPa 0,0 l/m 0 min 0 min 239 W/m 23,0 km/h (4 Bft) 97,87 %
29.03.2017 12:46 13,8 C 15,6 C 15,0 C 79 % 0 lf 1024,2 hPa 0,0 l/m 0 min 0 min 258 W/m 23,0 km/h (4 Bft) 95,74 %
29.03.2017 12:48 13,8 C 15,6 C 15,0 C 80 % 0 lf 1024,1 hPa 0,0 l/m 0 min 0 min 288 W/m 27,2 km/h (4 Bft) 97,87 %
29.03.2017 12:50 13,8 C 15,6 C 15,0 C 80 % 0 lf 1024,2 hPa 0,0 l/m 0 min 0 min 255 W/m 23,0 km/h (4 Bft) 97,83 %
29.03.2017 12:52 13,8 C 15,6 C 15,0 C 80 % 0 lf 1024,3 hPa 0,0 l/m 0 min 0 min 257 W/m 23,0 km/h (4 Bft) 98,18 %
29.03.2017 12:54 13,8 C 15,6 C 15,0 C 80 % 0 lf 1024,2 hPa 0,0 l/m 0 min 0 min 290 W/m 25,1 km/h (4 Bft) 95,74 %
29.03.2017 12:56 13,8 C 16,1 C 15,6 C 80 % 0 lf 1024,2 hPa 0,0 l/m 0 min 0 min 313 W/m 27,2 km/h (4 Bft) 97,87 %
29.03.2017 12:58 13,8 C 15,6 C 15,6 C 81 % 0 lf 1024,2 hPa 0,0 l/m 0 min 0 min 261 W/m 20,9 km/h (4 Bft) 95,74 %
29.03.2017 13:00 13,8 C 15,6 C 15,0 C 80 % 0 lf 1024,2 hPa 0,0 l/m 0 min 0 min 228 W/m 23,0 km/h (4 Bft) 100,00 %
29.03.2017 13:02 13,8 C 15,0 C 15,6 C 80 % 0 lf 1024,2 hPa 0,0 l/m 0 min 0 min 265 W/m 18,8 km/h (3 Bft) 100,00 %
29.03.2017 13:04 13,8 C 15,0 C 15,0 C 80 % 0 lf 1024,1 hPa 0,0 l/m 0 min 0 min 266 W/m 23,0 km/h (4 Bft) 97,83 %
29.03.2017 13:06 13,9 C 15,6 C 15,0 C 81 % 0 lf 1024,1 hPa 0,0 l/m 0 min 0 min 256 W/m 20,9 km/h (4 Bft) 100,00 %
29.03.2017 13:08 13,9 C 15,6 C 15,6 C 81 % 0 lf 1024,1 hPa 0,0 l/m 0 min 0 min 268 W/m 18,8 km/h (3 Bft) 100,00 %
29.03.2017 13:10 13,9 C 16,1 C 15,0 C 81 % 1 lf 1024,1 hPa 0,0 l/m 0 min 0 min 316 W/m 35,6 km/h (5 Bft) 100,00 %
29.03.2017 13:12 13,9 C 16,1 C 15,6 C 80 % 0 lf 1024,0 hPa 0,0 l/m 2 min 0 min 412 W/m 31,4 km/h (5 Bft) 100,00 %
29.03.2017 13:14 13,9 C 16,7 C 15,0 C 80 % 0 lf 1024,1 hPa 0,0 l/m 2 min 0 min 408 W/m 29,3 km/h (5 Bft) 100,00 %
29.03.2017 13:16 13,9 C 17,2 C 15,6 C 80 % 0 lf 1024,1 hPa 0,0 l/m 2 min 0 min 430 W/m 29,3 km/h (5 Bft) 97,87 %
29.03.2017 13:18 13,9 C 18,3 C 15,6 C 81 % 0 lf 1024,0 hPa 0,0 l/m 2 min 0 min 491 W/m 25,1 km/h (4 Bft) 100,00 %
29.03.2017 13:20 14,0 C 18,3 C 16,1 C 81 % 0 lf 1024,1 hPa 0,0 l/m 2 min 0 min 500 W/m 29,3 km/h (5 Bft) 100,00 %
29.03.2017 13:22 14,1 C 18,9 C 15,6 C 80 % 0 lf 1024,0 hPa 0,0 l/m 2 min 0 min 519 W/m 23,0 km/h (4 Bft) 100,00 %
29.03.2017 13:24 14,2 C 20,0 C 16,1 C 80 % 0 lf 1024,0 hPa 0,0 l/m 2 min 0 min 382 W/m 18,8 km/h (3 Bft) 100,00 %
29.03.2017 13:26 14,2 C 21,1 C 16,1 C 81 % 0 lf 1024,0 hPa 0,0 l/m 2 min 0 min 503 W/m 27,2 km/h (4 Bft) 97,87 %
29.03.2017 13:28 14,2 C 21,1 C 16,1 C 81 % 0 lf 1023,9 hPa 0,0 l/m 2 min 0 min 550 W/m 29,3 km/h (5 Bft) 97,83 %
29.03.2017 13:30 14,4 C 20,6 C 16,1 C 80 % 0 lf 1024,0 hPa 0,0 l/m 2 min 0 min 521 W/m 31,4 km/h (5 Bft) 97,87 %
29.03.2017 13:32 14,5 C 20,6 C 16,1 C 80 % 0 lf 1023,9 hPa 0,0 l/m 2 min 0 min 456 W/m 25,1 km/h (4 Bft) 100,00 %
29.03.2017 13:34 14,6 C 19,4 C 16,1 C 80 % 0 lf 1023,9 hPa 0,0 l/m 2 min 0 min 629 W/m 25,1 km/h (4 Bft) 93,62 %
29.03.2017 13:36 14,7 C 19,4 C 16,1 C 79 % 0 lf 1023,9 hPa 0,0 l/m 2 min 0 min 396 W/m 29,3 km/h (5 Bft) 97,87 %
29.03.2017 13:38 14,8 C 19,4 C 16,1 C 79 % 0 lf 1024,0 hPa 0,0 l/m 2 min 0 min 404 W/m 29,3 km/h (5 Bft) 100,00 %
29.03.2017 13:40 14,9 C 18,9 C 16,1 C 79 % 0 lf 1024,0 hPa 0,0 l/m 2 min 0 min 367 W/m 29,3 km/h (5 Bft) 100,00 %
29.03.2017 13:42 14,9 C 20,0 C 16,1 C 78 % 0 lf 1023,9 hPa 0,0 l/m 2 min 0 min 473 W/m 29,3 km/h (5 Bft) 100,00 %
29.03.2017 13:44 15,0 C 20,6 C 16,1 C 78 % 0 lf 1023,9 hPa 0,0 l/m 2 min 0 min 793 W/m 23,0 km/h (4 Bft) 100,00 %
29.03.2017 13:46 15,1 C 22,2 C 16,1 C 78 % 0 lf 1023,9 hPa 0,0 l/m 2 min 0 min 778 W/m 29,3 km/h (5 Bft) 97,87 %
29.03.2017 13:48 15,2 C 21,7 C 16,7 C 78 % 0 lf 1023,9 hPa 0,0 l/m 2 min 0 min 811 W/m 31,4 km/h (5 Bft) 100,00 %
29.03.2017 13:50 15,3 C 22,2 C 17,2 C 77 % 0 lf 1023,9 hPa 0,0 l/m 2 min 0 min 858 W/m 39,7 km/h (6 Bft) 100,00 %
29.03.2017 13:52 15,4 C 22,8 C 17,8 C 77 % 0 lf 1024,0 hPa 0,0 l/m 2 min 0 min 832 W/m 31,4 km/h (5 Bft) 87,23 %
29.03.2017 13:54 15,6 C 21,7 C 17,2 C 77 % 0 lf 1023,9 hPa 0,0 l/m 2 min 0 min 769 W/m 31,4 km/h (5 Bft) 100,00 %
29.03.2017 13:56 15,7 C 19,4 C 17,2 C 75 % 0 lf 1023,8 hPa 0,0 l/m 0 min 0 min 280 W/m 27,2 km/h (4 Bft) 97,87 %
29.03.2017 13:58 15,7 C 18,3 C 16,7 C 75 % 0 lf 1023,8 hPa 0,0 l/m 0 min 0 min 260 W/m 35,6 km/h (5 Bft) 100,00 %
29.03.2017 14:00 15,7 C 17,2 C 16,1 C 74 % 0 lf 1023,9 hPa 0,0 l/m 0 min 0 min 244 W/m 35,6 km/h (5 Bft) 100,00 %
29.03.2017 14:02 15,6 C 17,2 C 16,1 C 74 % 0 lf 1023,9 hPa 0,0 l/m 0 min 0 min 326 W/m 35,6 km/h (5 Bft) 100,00 %
29.03.2017 14:04 15,5 C 16,7 C 16,1 C 75 % 0 lf 1023,9 hPa 0,0 l/m 0 min 0 min 258 W/m 37,7 km/h (5 Bft) 97,87 %
29.03.2017 14:06 15,4 C 16,7 C 16,1 C 74 % 0 lf 1023,8 hPa 0,0 l/m 0 min 0 min 252 W/m 35,6 km/h (5 Bft) 97,87 %
29.03.2017 14:08 15,4 C 16,7 C 16,7 C 75 % 0 lf 1023,8 hPa 0,0 l/m 0 min 0 min 308 W/m 25,1 km/h (4 Bft) 97,87 %
29.03.2017 14:10 15,4 C 17,8 C 16,7 C 75 % 0 lf 1023,8 hPa 0,0 l/m 2 min 0 min 344 W/m 25,1 km/h (4 Bft) 93,62 %
29.03.2017 14:12 15,4 C 17,8 C 16,7 C 75 % 0 lf 1023,8 hPa 0,0 l/m 2 min 0 min 355 W/m 25,1 km/h (4 Bft) 93,62 %
29.03.2017 14:14 15,4 C 17,8 C 16,7 C 75 % 0 lf 1023,8 hPa 0,0 l/m 2 min 0 min 346 W/m 29,3 km/h (5 Bft) 95,65 %
29.03.2017 14:16 15,4 C 17,8 C 16,7 C 75 % 0 lf 1023,8 hPa 0,0 l/m 2 min 0 min 359 W/m 27,2 km/h (4 Bft) 95,74 %
29.03.2017 14:18 15,4 C 18,9 C 17,2 C 75 % 0 lf 1023,8 hPa 0,0 l/m 2 min 0 min 377 W/m 29,3 km/h (5 Bft) 93,62 %
29.03.2017 14:20 15,5 C 18,3 C 17,2 C 75 % 0 lf 1023,8 hPa 0,0 l/m 2 min 0 min 388 W/m 29,3 km/h (5 Bft) 91,49 %
29.03.2017 14:22 15,5 C 18,3 C 17,2 C 75 % 0 lf 1023,7 hPa 0,0 l/m 2 min 0 min 382 W/m 23,0 km/h (4 Bft) 94,74 %
29.03.2017 14:24 15,5 C 18,3 C 17,2 C 74 % 0 lf 1023,7 hPa 0,0 l/m 2 min 0 min 353 W/m 35,6 km/h (5 Bft) 93,62 %
29.03.2017 14:26 15,6 C 18,3 C 17,2 C 74 % 0 lf 1023,6 hPa 0,0 l/m 2 min 0 min 345 W/m 27,2 km/h (4 Bft) 93,62 %
29.03.2017 14:28 15,6 C 18,9 C 17,2 C 74 % 0 lf 1023,7 hPa 0,0 l/m 2 min 0 min 418 W/m 29,3 km/h (5 Bft) 91,30 %
29.03.2017 14:30 15,7 C 19,4 C 17,8 C 74 % 0 lf 1023,6 hPa 0,0 l/m 2 min 0 min 476 W/m 27,2 km/h (4 Bft) 93,62 %
29.03.2017 14:32 15,7 C 20,0 C 17,8 C 74 % 0 lf 1023,5 hPa 0,0 l/m 2 min 0 min 534 W/m 35,6 km/h (5 Bft) 91,49 %
29.03.2017 14:34 15,8 C 19,4 C 17,8 C 74 % 0 lf 1023,6 hPa 0,0 l/m 2 min 0 min 470 W/m 33,5 km/h (5 Bft) 93,62 %
29.03.2017 14:36 15,9 C 18,9 C 17,8 C 74 % 0 lf 1023,5 hPa 0,0 l/m 2 min 0 min 360 W/m 23,0 km/h (4 Bft) 91,49 %
29.03.2017 14:38 15,9 C 18,9 C 17,8 C 73 % 0 lf 1023,6 hPa 0,0 l/m 2 min 0 min 340 W/m 18,8 km/h (3 Bft) 93,62 %
29.03.2017 14:40 16,0 C 18,9 C 17,8 C 73 % 0 lf 1023,5 hPa 0,0 l/m 2 min 0 min 376 W/m 33,5 km/h (5 Bft) 93,48 %
29.03.2017 14:42 16,1 C 20,6 C 17,8 C 73 % 0 lf 1023,4 hPa 0,0 l/m 2 min 0 min 464 W/m 31,4 km/h (5 Bft) 93,62 %
29.03.2017 14:44 16,2 C 20,6 C 17,8 C 72 % 0 lf 1023,3 hPa 0,0 l/m 2 min 0 min 594 W/m 23,0 km/h (4 Bft) 95,74 %
29.03.2017 14:46 16,2 C 20,6 C 17,2 C 71 % 0 lf 1023,4 hPa 0,0 l/m 2 min 0 min 378 W/m 39,7 km/h (6 Bft) 95,74 %
29.03.2017 14:48 16,3 C 21,1 C 17,2 C 70 % 0 lf 1023,3 hPa 0,0 l/m 2 min 0 min 372 W/m 25,1 km/h (4 Bft) 93,62 %
29.03.2017 14:50 16,3 C 21,1 C 17,2 C 71 % 0 lf 1023,3 hPa 0,0 l/m 2 min 0 min 367 W/m 31,4 km/h (5 Bft) 95,74 %
29.03.2017 14:52 16,4 C 20,0 C 17,2 C 70 % 0 lf 1023,4 hPa 0,0 l/m 0 min 0 min 282 W/m 35,6 km/h (5 Bft) 93,48 %
29.03.2017 14:54 16,4 C 18,9 C 17,2 C 70 % 0 lf 1023,4 hPa 0,0 l/m 0 min 0 min 274 W/m 35,6 km/h (5 Bft) 93,62 %
29.03.2017 14:56 16,4 C 18,3 C 16,7 C 70 % 0 lf 1023,3 hPa 0,0 l/m 0 min 0 min 227 W/m 27,2 km/h (4 Bft) 93,62 %
29.03.2017 14:58 16,3 C 17,8 C 16,7 C 69 % 0 lf 1023,4 hPa 0,0 l/m 0 min 0 min 246 W/m 29,3 km/h (5 Bft) 93,62 %
29.03.2017 15:00 16,3 C 17,8 C 16,7 C 69 % 0 lf 1023,4 hPa 0,0 l/m 0 min 0 min 229 W/m 27,2 km/h (4 Bft) 93,62 %
29.03.2017 15:02 16,3 C 17,2 C 16,7 C 69 % 0 lf 1023,3 hPa 0,0 l/m 0 min 0 min 213 W/m 25,1 km/h (4 Bft) 95,74 %
29.03.2017 15:04 16,3 C 17,8 C 16,7 C 69 % 0 lf 1023,3 hPa 0,0 l/m 0 min 0 min 250 W/m 27,2 km/h (4 Bft) 95,65 %
29.03.2017 15:06 16,2 C 17,8 C 16,7 C 69 % 0 lf 1023,3 hPa 0,0 l/m 0 min 0 min 238 W/m 29,3 km/h (5 Bft) 97,87 %
29.03.2017 15:08 16,2 C 17,8 C 16,7 C 70 % 0 lf 1023,3 hPa 0,0 l/m 0 min 0 min 193 W/m 23,0 km/h (4 Bft) 95,74 %
29.03.2017 15:10 16,2 C 17,2 C 16,1 C 69 % 0 lf 1023,3 hPa 0,0 l/m 0 min 0 min 163 W/m 31,4 km/h (5 Bft) 97,87 %
29.03.2017 15:12 16,1 C 16,7 C 16,1 C 69 % 0 lf 1023,4 hPa 0,0 l/m 0 min 0 min 168 W/m 27,2 km/h (4 Bft) 97,87 %
29.03.2017 15:14 16,1 C 17,2 C 16,1 C 69 % 0 lf 1023,3 hPa 0,0 l/m 0 min 0 min 184 W/m 25,1 km/h (4 Bft) 100,00 %
29.03.2017 15:16 16,0 C 16,7 C 16,1 C 70 % 0 lf 1023,3 hPa 0,0 l/m 0 min 0 min 198 W/m 25,1 km/h (4 Bft) 95,65 %
29.03.2017 15:18 16,0 C 16,7 C 16,1 C 70 % 0 lf 1023,3 hPa 0,0 l/m 0 min 0 min 195 W/m 31,4 km/h (5 Bft) 97,87 %
29.03.2017 15:20 15,9 C 16,7 C 16,1 C 70 % 0 lf 1023,3 hPa 0,0 l/m 0 min 0 min 178 W/m 25,1 km/h (4 Bft) 96,61 %
29.03.2017 15:22 15,9 C 16,7 C 15,6 C 70 % 0 lf 1023,3 hPa 0,0 l/m 0 min 0 min 164 W/m 27,2 km/h (4 Bft) 94,29 %
29.03.2017 15:24 15,9 C 16,7 C 16,1 C 70 % 0 lf 1023,2 hPa 0,0 l/m 0 min 0 min 187 W/m 25,1 km/h (4 Bft) 97,87 %
29.03.2017 15:26 15,9 C 16,7 C 16,1 C 71 % 0 lf 1023,3 hPa 0,0 l/m 0 min 0 min 176 W/m 27,2 km/h (4 Bft) 97,83 %
29.03.2017 15:28 15,9 C 16,7 C 16,1 C 71 % 0 lf 1023,3 hPa 0,0 l/m 0 min 0 min 173 W/m 23,0 km/h (4 Bft) 97,87 %
29.03.2017 15:30 15,9 C 16,7 C 16,1 C 70 % 0 lf 1023,2 hPa 0,0 l/m 0 min 0 min 162 W/m 27,2 km/h (4 Bft) 97,87 %
29.03.2017 15:32 15,9 C 16,7 C 15,6 C 70 % 0 lf 1023,2 hPa 0,0 l/m 0 min 0 min 132 W/m 27,2 km/h (4 Bft) 95,74 %
29.03.2017 15:34 15,8 C 16,7 C 15,6 C 70 % 0 lf 1023,2 hPa 0,0 l/m 0 min 0 min 117 W/m 33,5 km/h (5 Bft) 95,74 %
29.03.2017 15:36 15,8 C 16,1 C 15,0 C 70 % 0 lf 1023,2 hPa 0,0 l/m 0 min 0 min 100 W/m 25,1 km/h (4 Bft) 97,87 %
29.03.2017 15:38 15,8 C 16,1 C 15,0 C 70 % 0 lf 1023,2 hPa 0,0 l/m 0 min 0 min 104 W/m 29,3 km/h (5 Bft) 93,48 %
29.03.2017 15:40 15,8 C 16,1 C 15,0 C 70 % 0 lf 1023,2 hPa 0,0 l/m 0 min 0 min 120 W/m 27,2 km/h (4 Bft) 97,87 %
29.03.2017 15:42 15,8 C 16,7 C 15,6 C 70 % 0 lf 1023,1 hPa 0,0 l/m 0 min 0 min 129 W/m 25,1 km/h (4 Bft) 97,87 %
29.03.2017 15:44 15,8 C 16,7 C 15,6 C 70 % 0 lf 1023,1 hPa 0,0 l/m 0 min 0 min 158 W/m 35,6 km/h (5 Bft) 95,74 %
29.03.2017 15:46 15,8 C 16,7 C 15,6 C 70 % 0 lf 1023,1 hPa 0,0 l/m 0 min 0 min 166 W/m 29,3 km/h (5 Bft) 97,87 %
29.03.2017 15:48 15,8 C 16,7 C 15,6 C 70 % 0 lf 1023,1 hPa 0,0 l/m 0 min 0 min 159 W/m 31,4 km/h (5 Bft) 97,87 %
29.03.2017 15:50 15,8 C 16,7 C 16,1 C 71 % 0 lf 1023,1 hPa 0,0 l/m 0 min 0 min 158 W/m 18,8 km/h (3 Bft) 93,10 %
29.03.2017 15:52 15,8 C 16,7 C 16,1 C 71 % 0 lf 1023,1 hPa 0,0 l/m 0 min 0 min 137 W/m 20,9 km/h (4 Bft) 97,14 %
29.03.2017 15:54 15,8 C 16,7 C 15,6 C 71 % 0 lf 1023,1 hPa 0,0 l/m 0 min 0 min 116 W/m 16,7 km/h (3 Bft) 97,87 %
29.03.2017 15:56 15,8 C 16,7 C 15,6 C 71 % 0 lf 1023,1 hPa 0,0 l/m 0 min 0 min 105 W/m 20,9 km/h (4 Bft) 95,74 %
29.03.2017 15:58 15,8 C 16,7 C 15,6 C 71 % 0 lf 1023,1 hPa 0,0 l/m 0 min 0 min 95 W/m 23,0 km/h (4 Bft) 95,74 %
29.03.2017 16:00 15,8 C 16,7 C 15,0 C 70 % 0 lf 1023,1 hPa 0,0 l/m 0 min 0 min 88 W/m 23,0 km/h (4 Bft) 95,74 %
29.03.2017 16:02 15,8 C 16,7 C 15,0 C 70 % 0 lf 1023,1 hPa 0,0 l/m 0 min 0 min 92 W/m 20,9 km/h (4 Bft) 95,65 %
29.03.2017 16:04 15,8 C 16,7 C 15,0 C 70 % 0 lf 1023,1 hPa 0,0 l/m 0 min 0 min 109 W/m 23,0 km/h (4 Bft) 97,87 %
29.03.2017 16:06 15,8 C 16,7 C 15,0 C 70 % 0 lf 1023,0 hPa 0,0 l/m 0 min 0 min 105 W/m 16,7 km/h (3 Bft) 97,87 %
29.03.2017 16:08 15,8 C 16,7 C 15,0 C 70 % 0 lf 1023,1 hPa 0,0 l/m 0 min 0 min 86 W/m 18,8 km/h (3 Bft) 97,87 %
29.03.2017 16:10 15,8 C 16,7 C 15,0 C 70 % 0 lf 1023,0 hPa 0,0 l/m 0 min 0 min 84 W/m 23,0 km/h (4 Bft) 100,00 %
29.03.2017 16:12 15,8 C 16,7 C 15,0 C 70 % 0 lf 1023,0 hPa 0,0 l/m 0 min 0 min 98 W/m 14,6 km/h (3 Bft) 97,87 %
29.03.2017 16:14 15,8 C 16,7 C 15,0 C 71 % 0 lf 1023,0 hPa 0,0 l/m 0 min 0 min 117 W/m 18,8 km/h (3 Bft) 100,00 %
29.03.2017 16:16 15,8 C 16,7 C 15,6 C 70 % 0 lf 1023,0 hPa 0,0 l/m 0 min 0 min 121 W/m 20,9 km/h (4 Bft) 97,87 %
29.03.2017 16:18 15,8 C 16,7 C 15,6 C 70 % 0 lf 1023,0 hPa 0,0 l/m 0 min 0 min 134 W/m 18,8 km/h (3 Bft) 93,62 %
29.03.2017 16:20 15,8 C 16,7 C 15,6 C 70 % 0 lf 1023,0 hPa 0,0 l/m 0 min 0 min 144 W/m 20,9 km/h (4 Bft) 94,92 %
29.03.2017 16:22 15,8 C 16,7 C 16,1 C 71 % 0 lf 1022,9 hPa 0,0 l/m 0 min 0 min 150 W/m 18,8 km/h (3 Bft) 97,14 %
29.03.2017 16:24 15,8 C 16,7 C 15,6 C 71 % 0 lf 1022,9 hPa 0,0 l/m 0 min 0 min 139 W/m 29,3 km/h (5 Bft) 97,87 %
29.03.2017 16:26 15,9 C 16,7 C 15,6 C 70 % 0 lf 1022,9 hPa 0,0 l/m 0 min 0 min 133 W/m 23,0 km/h (4 Bft) 97,83 %
29.03.2017 16:28 15,9 C 16,7 C 15,6 C 70 % 0 lf 1022,9 hPa 0,0 l/m 0 min 0 min 134 W/m 20,9 km/h (4 Bft) 97,87 %
29.03.2017 16:30 15,9 C 16,7 C 16,1 C 70 % 0 lf 1022,9 hPa 0,0 l/m 0 min 0 min 139 W/m 23,0 km/h (4 Bft) 95,74 %
29.03.2017 16:32 15,9 C 16,7 C 15,6 C 70 % 0 lf 1022,9 hPa 0,0 l/m 0 min 0 min 140 W/m 25,1 km/h (4 Bft) 93,62 %
29.03.2017 16:34 15,9 C 16,7 C 15,6 C 70 % 0 lf 1022,9 hPa 0,0 l/m 0 min 0 min 128 W/m 31,4 km/h (5 Bft) 95,74 %
29.03.2017 16:36 15,9 C 16,7 C 15,6 C 70 % 0 lf 1022,9 hPa 0,0 l/m 0 min 0 min 117 W/m 23,0 km/h (4 Bft) 97,83 %
29.03.2017 16:38 15,9 C 16,1 C 15,6 C 70 % 0 lf 1022,8 hPa 0,0 l/m 0 min 0 min 103 W/m 25,1 km/h (4 Bft) 97,87 %
29.03.2017 16:40 15,9 C 16,1 C 15,6 C 70 % 0 lf 1022,9 hPa 0,0 l/m 0 min 0 min 98 W/m 27,2 km/h (4 Bft) 100,00 %
29.03.2017 16:42 15,8 C 16,1 C 15,0 C 70 % 0 lf 1022,9 hPa 0,0 l/m 0 min 0 min 95 W/m 31,4 km/h (5 Bft) 95,74 %
29.03.2017 16:44 15,8 C 16,1 C 15,0 C 70 % 0 lf 1022,9 hPa 0,0 l/m 0 min 0 min 85 W/m 18,8 km/h (3 Bft) 95,74 %
29.03.2017 16:46 15,8 C 16,1 C 15,0 C 70 % 0 lf 1022,9 hPa 0,0 l/m 0 min 0 min 80 W/m 23,0 km/h (4 Bft) 97,87 %
29.03.2017 16:48 15,8 C 16,1 C 15,0 C 71 % 0 lf 1022,9 hPa 0,0 l/m 0 min 0 min 78 W/m 20,9 km/h (4 Bft) 95,65 %
29.03.2017 16:50 15,8 C 16,1 C 15,0 C 71 % 0 lf 1022,9 hPa 0,0 l/m 0 min 0 min 61 W/m 20,9 km/h (4 Bft) 94,92 %
29.03.2017 16:52 15,8 C 16,1 C 14,4 C 71 % 0 lf 1023,0 hPa 0,0 l/m 0 min 0 min 44 W/m 16,7 km/h (3 Bft) 100,00 %
29.03.2017 16:54 15,7 C 15,6 C 14,4 C 72 % 0 lf 1022,9 hPa 0,0 l/m 0 min 0 min 44 W/m 14,6 km/h (3 Bft) 100,00 %
29.03.2017 16:56 15,7 C 15,6 C 14,4 C 72 % 0 lf 1022,9 hPa 0,0 l/m 0 min 0 min 67 W/m 18,8 km/h (3 Bft) 100,00 %
29.03.2017 16:58 15,7 C 15,6 C 14,4 C 73 % 0 lf 1022,9 hPa 0,0 l/m 0 min 0 min 80 W/m 23,0 km/h (4 Bft) 100,00 %
29.03.2017 17:00 15,7 C 15,6 C 14,4 C 73 % 0 lf 1022,9 hPa 0,0 l/m 0 min 0 min 80 W/m 16,7 km/h (3 Bft) 97,83 %
29.03.2017 17:02 15,6 C 15,6 C 14,4 C 73 % 0 lf 1022,9 hPa 0,0 l/m 0 min 0 min 73 W/m 23,0 km/h (4 Bft) 95,74 %
29.03.2017 17:04 15,6 C 15,6 C 14,4 C 73 % 0 lf 1022,8 hPa 0,0 l/m 0 min 0 min 71 W/m 18,8 km/h (3 Bft) 97,87 %
29.03.2017 17:06 15,6 C 15,6 C 14,4 C 73 % 0 lf 1022,8 hPa 0,0 l/m 0 min 0 min 75 W/m 18,8 km/h (3 Bft) 95,74 %
29.03.2017 17:08 15,5 C 15,6 C 14,4 C 74 % 0 lf 1022,8 hPa 0,0 l/m 0 min 0 min 84 W/m 16,7 km/h (3 Bft) 97,87 %
29.03.2017 17:10 15,5 C 16,1 C 14,4 C 74 % 0 lf 1022,8 hPa 0,0 l/m 0 min 0 min 86 W/m 20,9 km/h (4 Bft) 97,87 %
29.03.2017 17:12 15,5 C 16,1 C 14,4 C 74 % 0 lf 1022,9 hPa 0,0 l/m 0 min 0 min 83 W/m 18,8 km/h (3 Bft) 93,48 %
29.03.2017 17:14 15,5 C 16,1 C 14,4 C 74 % 0 lf 1022,8 hPa 0,0 l/m 0 min 0 min 100 W/m 18,8 km/h (3 Bft) 97,87 %
29.03.2017 17:16 15,4 C 16,1 C 15,0 C 75 % 0 lf 1022,9 hPa 0,0 l/m 0 min 0 min 131 W/m 16,7 km/h (3 Bft) 95,74 %
29.03.2017 17:18 15,4 C 16,7 C 15,0 C 75 % 0 lf 1022,8 hPa 0,0 l/m 0 min 0 min 145 W/m 18,8 km/h (3 Bft) 100,00 %
29.03.2017 17:20 15,4 C 16,7 C 15,6 C 75 % 0 lf 1022,9 hPa 0,0 l/m 0 min 0 min 154 W/m 18,8 km/h (3 Bft) 97,87 %
29.03.2017 17:22 15,5 C 16,7 C 15,6 C 75 % 0 lf 1022,9 hPa 0,0 l/m 0 min 0 min 155 W/m 14,6 km/h (3 Bft) 97,87 %
29.03.2017 17:24 15,5 C 16,7 C 15,6 C 75 % 0 lf 1022,9 hPa 0,0 l/m 0 min 0 min 144 W/m 16,7 km/h (3 Bft) 95,65 %
29.03.2017 17:26 15,5 C 16,7 C 15,6 C 75 % 0 lf 1023,0 hPa 0,0 l/m 0 min 0 min 125 W/m 20,9 km/h (4 Bft) 95,74 %
29.03.2017 17:28 15,6 C 16,7 C 15,0 C 75 % 0 lf 1023,0 hPa 0,0 l/m 0 min 0 min 107 W/m 14,6 km/h (3 Bft) 93,62 %
29.03.2017 17:30 15,5 C 16,1 C 15,0 C 75 % 0 lf 1023,0 hPa 0,0 l/m 0 min 0 min 95 W/m 23,0 km/h (4 Bft) 95,74 %
29.03.2017 17:32 15,6 C 16,1 C 15,0 C 75 % 0 lf 1023,0 hPa 0,0 l/m 0 min 0 min 98 W/m 18,8 km/h (3 Bft) 93,62 %
29.03.2017 17:34 15,5 C 16,1 C 15,0 C 75 % 0 lf 1023,0 hPa 0,0 l/m 0 min 0 min 94 W/m 27,2 km/h (4 Bft) 93,62 %
29.03.2017 17:36 15,5 C 16,1 C 15,0 C 75 % 0 lf 1023,0 hPa 0,0 l/m 0 min 0 min 87 W/m 25,1 km/h (4 Bft) 95,65 %
29.03.2017 17:38 15,5 C 16,1 C 14,4 C 75 % 0 lf 1023,0 hPa 0,0 l/m 0 min 0 min 83 W/m 31,4 km/h (5 Bft) 95,74 %
29.03.2017 17:40 15,4 C 16,1 C 14,4 C 75 % 0 lf 1023,0 hPa 0,0 l/m 0 min 0 min 78 W/m 20,9 km/h (4 Bft) 93,62 %
29.03.2017 17:42 15,4 C 15,6 C 14,4 C 75 % 0 lf 1023,0 hPa 0,0 l/m 0 min 0 min 73 W/m 25,1 km/h (4 Bft) 93,62 %
29.03.2017 17:44 15,4 C 15,6 C 14,4 C 75 % 0 lf 1023,0 hPa 0,0 l/m 0 min 0 min 65 W/m 20,9 km/h (4 Bft) 95,74 %
29.03.2017 17:46 15,4 C 15,6 C 14,4 C 75 % 0 lf 1023,0 hPa 0,0 l/m 0 min 0 min 57 W/m 20,9 km/h (4 Bft) 93,62 %
29.03.2017 17:48 15,4 C 15,6 C 14,4 C 75 % 0 lf 1023,0 hPa 0,0 l/m 0 min 0 min 53 W/m 25,1 km/h (4 Bft) 93,48 %
29.03.2017 17:50 15,4 C 15,6 C 13,9 C 75 % 0 lf 1023,0 hPa 0,0 l/m 0 min 0 min 58 W/m 23,0 km/h (4 Bft) 95,74 %
29.03.2017 17:52 15,3 C 15,6 C 14,4 C 75 % 0 lf 1023,1 hPa 0,0 l/m 0 min 0 min 81 W/m 18,8 km/h (3 Bft) 97,87 %
29.03.2017 17:54 15,3 C 15,6 C 14,4 C 75 % 0 lf 1023,0 hPa 0,0 l/m 0 min 0 min 92 W/m 31,4 km/h (5 Bft) 97,87 %
29.03.2017 17:56 15,3 C 15,6 C 14,4 C 75 % 0 lf 1023,0 hPa 0,0 l/m 0 min 0 min 87 W/m 16,7 km/h (3 Bft) 95,74 %
29.03.2017 17:58 15,3 C 15,6 C 14,4 C 75 % 0 lf 1023,0 hPa 0,0 l/m 0 min 0 min 76 W/m 20,9 km/h (4 Bft) 93,62 %
29.03.2017 18:00 15,3 C 15,6 C 14,4 C 75 % 0 lf 1023,0 hPa 0,0 l/m 0 min 0 min 73 W/m 23,0 km/h (4 Bft) 97,83 %
29.03.2017 18:02 15,3 C 15,6 C 14,4 C 75 % 0 lf 1023,0 hPa 0,0 l/m 0 min 0 min 64 W/m 18,8 km/h (3 Bft) 97,92 %
29.03.2017 18:04 15,3 C 15,6 C 14,4 C 75 % 0 lf 1023,0 hPa 0,0 l/m 0 min 0 min 51 W/m 25,1 km/h (4 Bft) 95,74 %
29.03.2017 18:06 15,3 C 15,6 C 13,9 C 75 % 0 lf 1023,0 hPa 0,0 l/m 0 min 0 min 46 W/m 18,8 km/h (3 Bft) 97,83 %
29.03.2017 18:10 15,3 C 15,6 C 13,9 C 75 % 0 lf 1023,1 hPa 0,0 l/m 0 min 0 min 43 W/m 18,8 km/h (3 Bft) 94,68 %
29.03.2017 18:12 15,3 C 15,6 C 13,9 C 75 % 0 lf 1023,0 hPa 0,0 l/m 0 min 0 min 47 W/m 14,6 km/h (3 Bft) 97,87 %
29.03.2017 18:14 15,3 C 15,6 C 13,9 C 75 % 0 lf 1023,1 hPa 0,0 l/m 0 min 0 min 47 W/m 18,8 km/h (3 Bft) 95,74 %
29.03.2017 18:16 15,2 C 15,6 C 13,9 C 75 % 0 lf 1023,1 hPa 0,0 l/m 0 min 0 min 49 W/m 12,6 km/h (3 Bft) 97,87 %
29.03.2017 18:18 15,2 C 15,6 C 13,9 C 75 % 0 lf 1023,1 hPa 0,0 l/m 0 min 0 min 47 W/m 18,8 km/h (3 Bft) 95,65 %
29.03.2017 18:20 15,2 C 15,6 C 13,9 C 76 % 0 lf 1023,1 hPa 0,0 l/m 0 min 0 min 44 W/m 18,8 km/h (3 Bft) 95,74 %
29.03.2017 18:22 15,2 C 15,6 C 13,9 C 76 % 0 lf 1023,1 hPa 0,0 l/m 0 min 0 min 38 W/m 12,6 km/h (3 Bft) 91,49 %
29.03.2017 18:24 15,2 C 15,6 C 13,9 C 76 % 0 lf 1023,1 hPa 0,0 l/m 0 min 0 min 34 W/m 16,7 km/h (3 Bft) 93,62 %
29.03.2017 18:26 15,2 C 15,0 C 13,9 C 76 % 0 lf 1023,1 hPa 0,0 l/m 0 min 0 min 34 W/m 16,7 km/h (3 Bft) 95,74 %
29.03.2017 18:28 15,2 C 15,0 C 13,9 C 76 % 0 lf 1023,1 hPa 0,0 l/m 0 min 0 min 37 W/m 16,7 km/h (3 Bft) 91,49 %
29.03.2017 18:30 15,2 C 15,0 C 13,9 C 76 % 0 lf 1023,1 hPa 0,0 l/m 0 min 0 min 42 W/m 16,7 km/h (3 Bft) 93,48 %
29.03.2017 18:32 15,1 C 15,0 C 13,9 C 76 % 0 lf 1023,1 hPa 0,0 l/m 0 min 0 min 46 W/m 16,7 km/h (3 Bft) 93,62 %
29.03.2017 18:34 15,1 C 15,6 C 13,9 C 76 % 0 lf 1023,1 hPa 0,0 l/m 0 min 0 min 43 W/m 14,6 km/h (3 Bft) 93,62 %
29.03.2017 18:36 15,1 C 15,0 C 13,9 C 76 % 0 lf 1023,1 hPa 0,0 l/m 0 min 0 min 40 W/m 14,6 km/h (3 Bft) 89,36 %
29.03.2017 18:38 15,1 C 15,0 C 13,9 C 76 % 0 lf 1023,1 hPa 0,0 l/m 0 min 0 min 38 W/m 16,7 km/h (3 Bft) 95,74 %
29.03.2017 18:40 15,1 C 15,0 C 13,9 C 76 % 0 lf 1023,2 hPa 0,0 l/m 0 min 0 min 35 W/m 20,9 km/h (4 Bft) 95,74 %
29.03.2017 18:42 15,1 C 15,0 C 13,9 C 76 % 0 lf 1023,2 hPa 0,0 l/m 0 min 0 min 32 W/m 10,5 km/h (2 Bft) 95,65 %
29.03.2017 18:44 15,0 C 15,0 C 13,9 C 76 % 0 lf 1023,2 hPa 0,0 l/m 0 min 0 min 27 W/m 14,6 km/h (3 Bft) 93,62 %
29.03.2017 18:46 15,0 C 15,0 C 13,3 C 76 % 0 lf 1023,2 hPa 0,0 l/m 0 min 0 min 25 W/m 14,6 km/h (3 Bft) 93,62 %
29.03.2017 18:48 15,0 C 15,0 C 13,3 C 76 % 0 lf 1023,2 hPa 0,0 l/m 0 min 0 min 26 W/m 18,8 km/h (3 Bft) 95,74 %
29.03.2017 18:50 15,0 C 15,0 C 13,3 C 76 % 0 lf 1023,2 hPa 0,0 l/m 0 min 0 min 29 W/m 12,6 km/h (3 Bft) 93,62 %
29.03.2017 18:52 14,9 C 15,0 C 13,3 C 75 % 0 lf 1023,3 hPa 0,0 l/m 0 min 0 min 33 W/m 12,6 km/h (3 Bft) 97,83 %
29.03.2017 18:54 14,9 C 15,0 C 13,3 C 75 % 0 lf 1023,2 hPa 0,0 l/m 0 min 0 min 35 W/m 14,6 km/h (3 Bft) 93,62 %
29.03.2017 18:56 14,9 C 15,0 C 13,3 C 75 % 0 lf 1023,3 hPa 0,0 l/m 0 min 0 min 34 W/m 18,8 km/h (3 Bft) 97,87 %
29.03.2017 18:58 14,9 C 15,0 C 13,3 C 75 % 0 lf 1023,3 hPa 0,0 l/m 0 min 0 min 30 W/m 14,6 km/h (3 Bft) 93,62 %
29.03.2017 19:00 14,9 C 15,0 C 13,3 C 75 % 0 lf 1023,3 hPa 0,0 l/m 0 min 0 min 26 W/m 16,7 km/h (3 Bft) 97,87 %
29.03.2017 19:02 14,9 C 15,0 C 13,3 C 75 % 0 lf 1023,3 hPa 0,0 l/m 0 min 0 min 25 W/m 18,8 km/h (3 Bft) 93,62 %
29.03.2017 19:04 14,9 C 15,0 C 13,3 C 75 % 0 lf 1023,4 hPa 0,0 l/m 0 min 0 min 25 W/m 12,6 km/h (3 Bft) 97,83 %
29.03.2017 19:06 14,9 C 15,0 C 13,3 C 76 % 0 lf 1023,4 hPa 0,0 l/m 0 min 0 min 23 W/m 16,7 km/h (3 Bft) 93,62 %
29.03.2017 19:08 14,9 C 15,0 C 13,3 C 75 % 0 lf 1023,4 hPa 0,0 l/m 0 min 0 min 20 W/m 23,0 km/h (4 Bft) 100,00 %
29.03.2017 19:10 14,9 C 15,0 C 13,3 C 75 % 0 lf 1023,5 hPa 0,0 l/m 0 min 0 min 19 W/m 14,6 km/h (3 Bft) 100,00 %
29.03.2017 19:12 14,8 C 15,0 C 13,3 C 75 % 0 lf 1023,5 hPa 0,0 l/m 0 min 0 min 18 W/m 14,6 km/h (3 Bft) 100,00 %
29.03.2017 19:14 14,8 C 15,0 C 13,3 C 75 % 0 lf 1023,5 hPa 0,0 l/m 0 min 0 min 16 W/m 10,5 km/h (2 Bft) 100,00 %
29.03.2017 19:16 14,8 C 15,0 C 13,3 C 76 % 0 lf 1023,4 hPa 0,0 l/m 0 min 0 min 16 W/m 12,6 km/h (3 Bft) 95,65 %
29.03.2017 19:18 14,8 C 15,0 C 13,3 C 76 % 0 lf 1023,5 hPa 0,0 l/m 0 min 0 min 16 W/m 10,5 km/h (2 Bft) 97,87 %
29.03.2017 19:20 14,8 C 15,0 C 13,3 C 76 % 0 lf 1023,5 hPa 0,0 l/m 0 min 0 min 15 W/m 10,5 km/h (2 Bft) 97,87 %
29.03.2017 19:22 14,8 C 15,0 C 13,3 C 76 % 0 lf 1023,5 hPa 0,0 l/m 0 min 0 min 14 W/m 16,7 km/h (3 Bft) 97,87 %
29.03.2017 19:24 14,8 C 15,0 C 13,3 C 76 % 0 lf 1023,6 hPa 0,0 l/m 0 min 0 min 14 W/m 14,6 km/h (3 Bft) 97,87 %
29.03.2017 19:26 14,8 C 15,0 C 13,3 C 76 % 0 lf 1023,6 hPa 0,0 l/m 0 min 0 min 15 W/m 14,6 km/h (3 Bft) 97,87 %
29.03.2017 19:28 14,7 C 15,0 C 13,3 C 76 % 0 lf 1023,6 hPa 0,0 l/m 0 min 0 min 16 W/m 10,5 km/h (2 Bft) 97,83 %
29.03.2017 19:30 14,7 C 14,4 C 12,8 C 76 % 0 lf 1023,6 hPa 0,0 l/m 0 min 0 min 14 W/m 12,6 km/h (3 Bft) 95,74 %
29.03.2017 19:32 14,7 C 14,4 C 12,8 C 76 % 0 lf 1023,6 hPa 0,0 l/m 0 min 0 min 14 W/m 10,5 km/h (2 Bft) 95,74 %
29.03.2017 19:34 14,7 C 14,4 C 12,8 C 76 % 0 lf 1023,6 hPa 0,0 l/m 0 min 0 min 14 W/m 6,3 km/h (2 Bft) 100,00 %
29.03.2017 19:36 14,7 C 14,4 C 12,8 C 76 % 0 lf 1023,6 hPa 0,0 l/m 0 min 0 min 12 W/m 8,4 km/h (2 Bft) 100,00 %
29.03.2017 19:38 14,7 C 14,4 C 12,8 C 76 % 0 lf 1023,6 hPa 0,0 l/m 0 min 0 min 12 W/m 12,6 km/h (3 Bft) 100,00 %
29.03.2017 19:40 14,7 C 14,4 C 12,8 C 76 % 0 lf 1023,7 hPa 0,0 l/m 0 min 0 min 12 W/m 10,5 km/h (2 Bft) 97,83 %
29.03.2017 19:42 14,7 C 14,4 C 12,8 C 76 % 0 lf 1023,7 hPa 0,0 l/m 0 min 0 min 12 W/m 6,3 km/h (2 Bft) 100,00 %
29.03.2017 19:44 14,7 C 14,4 C 12,8 C 76 % 0 lf 1023,7 hPa 0,0 l/m 0 min 0 min 11 W/m 10,5 km/h (2 Bft) 100,00 %
29.03.2017 19:46 14,7 C 14,4 C 12,8 C 77 % 0 lf 1023,7 hPa 0,0 l/m 0 min 0 min 11 W/m 8,4 km/h (2 Bft) 97,87 %
29.03.2017 19:48 14,7 C 14,4 C 12,8 C 77 % 0 lf 1023,7 hPa 0,0 l/m 0 min 0 min 9 W/m 10,5 km/h (2 Bft) 95,74 %
29.03.2017 19:50 14,6 C 14,4 C 12,8 C 77 % 0 lf 1023,7 hPa 0,0 l/m 0 min 0 min 9 W/m 8,4 km/h (2 Bft) 97,87 %
29.03.2017 19:52 14,6 C 14,4 C 12,8 C 77 % 0 lf 1023,7 hPa 0,0 l/m 0 min 0 min 8 W/m 8,4 km/h (2 Bft) 97,83 %
29.03.2017 19:54 14,6 C 14,4 C 12,8 C 77 % 0 lf 1023,7 hPa 0,0 l/m 0 min 0 min 7 W/m 12,6 km/h (3 Bft) 97,87 %
29.03.2017 19:56 14,6 C 14,4 C 12,8 C 77 % 0 lf 1023,8 hPa 0,0 l/m 0 min 0 min 7 W/m 10,5 km/h (2 Bft) 97,87 %
29.03.2017 19:58 14,6 C 14,4 C 12,8 C 77 % 0 lf 1023,8 hPa 0,0 l/m 0 min 0 min 6 W/m 12,6 km/h (3 Bft) 97,87 %
29.03.2017 20:00 14,6 C 14,4 C 12,8 C 77 % 0 lf 1023,8 hPa 0,0 l/m 0 min 0 min 5 W/m 8,4 km/h (2 Bft) 93,62 %
29.03.2017 20:02 14,6 C 14,4 C 12,8 C 77 % 0 lf 1023,8 hPa 0,0 l/m 0 min 0 min 5 W/m 14,6 km/h (3 Bft) 97,83 %
29.03.2017 20:04 14,6 C 14,4 C 12,8 C 76 % 0 lf 1023,8 hPa 0,0 l/m 0 min 0 min 5 W/m 10,5 km/h (2 Bft) 95,74 %
29.03.2017 20:06 14,5 C 14,4 C 12,8 C 76 % 0 lf 1023,8 hPa 0,0 l/m 0 min 0 min 5 W/m 10,5 km/h (2 Bft) 93,62 %
29.03.2017 20:08 14,5 C 14,4 C 12,8 C 77 % 0 lf 1023,8 hPa 0,0 l/m 0 min 0 min 4 W/m 10,5 km/h (2 Bft) 97,87 %
29.03.2017 20:10 14,5 C 14,4 C 12,8 C 77 % 0 lf 1023,8 hPa 0,0 l/m 0 min 0 min 0 W/m 8,4 km/h (2 Bft) 97,87 %
29.03.2017 20:12 14,5 C 14,4 C 12,2 C 77 % 0 lf 1023,8 hPa 0,0 l/m 0 min 0 min 0 W/m 6,3 km/h (2 Bft) 95,74 %
29.03.2017 20:14 14,5 C 14,4 C 12,2 C 77 % 0 lf 1023,8 hPa 0,0 l/m 0 min 0 min 0 W/m 6,3 km/h (2 Bft) 95,65 %
29.03.2017 20:16 14,5 C 14,4 C 12,2 C 77 % 0 lf 1023,9 hPa 0,0 l/m 0 min 0 min 0 W/m 10,5 km/h (2 Bft) 95,74 %
29.03.2017 20:18 14,4 C 14,4 C 12,2 C 77 % 0 lf 1023,9 hPa 0,0 l/m 0 min 0 min 0 W/m 10,5 km/h (2 Bft) 95,74 %
29.03.2017 20:20 14,4 C 14,4 C 12,2 C 77 % 0 lf 1023,9 hPa 0,0 l/m 0 min 0 min 0 W/m 12,6 km/h (3 Bft) 91,49 %
29.03.2017 20:22 14,4 C 14,4 C 12,2 C 77 % 0 lf 1023,9 hPa 0,0 l/m 0 min 0 min 0 W/m 10,5 km/h (2 Bft) 93,62 %
29.03.2017 20:24 14,4 C 14,4 C 12,2 C 77 % 0 lf 1024,0 hPa 0,0 l/m 0 min 0 min 0 W/m 8,4 km/h (2 Bft) 93,62 %
29.03.2017 20:26 14,4 C 14,4 C 12,2 C 77 % 0 lf 1024,0 hPa 0,0 l/m 0 min 0 min 0 W/m 10,5 km/h (2 Bft) 95,65 %
29.03.2017 20:28 14,4 C 14,4 C 12,2 C 77 % 0 lf 1023,9 hPa 0,0 l/m 0 min 0 min 0 W/m 8,4 km/h (2 Bft) 95,74 %
29.03.2017 20:30 14,4 C 13,9 C 12,2 C 77 % 0 lf 1023,9 hPa 0,0 l/m 0 min 0 min 0 W/m 10,5 km/h (2 Bft) 95,74 %
29.03.2017 20:32 14,4 C 13,9 C 12,2 C 77 % 0 lf 1024,0 hPa 0,0 l/m 0 min 0 min 0 W/m 10,5 km/h (2 Bft) 93,62 %
29.03.2017 20:34 14,4 C 13,9 C 12,2 C 77 % 0 lf 1024,0 hPa 0,0 l/m 0 min 0 min 0 W/m 10,5 km/h (2 Bft) 93,62 %
29.03.2017 20:36 14,3 C 13,9 C 12,2 C 77 % 0 lf 1024,0 hPa 0,0 l/m 0 min 0 min 0 W/m 6,3 km/h (2 Bft) 97,87 %
29.03.2017 20:38 14,3 C 13,9 C 12,2 C 77 % 0 lf 1024,0 hPa 0,0 l/m 0 min 0 min 0 W/m 8,4 km/h (2 Bft) 97,83 %
29.03.2017 20:40 14,3 C 13,9 C 12,2 C 77 % 0 lf 1024,0 hPa 0,0 l/m 0 min 0 min 0 W/m 8,4 km/h (2 Bft) 91,49 %
29.03.2017 20:42 14,3 C 13,9 C 12,2 C 77 % 0 lf 1024,0 hPa 0,0 l/m 0 min 0 min 0 W/m 10,5 km/h (2 Bft) 97,87 %
29.03.2017 20:44 14,2 C 13,9 C 12,2 C 77 % 0 lf 1024,0 hPa 0,0 l/m 0 min 0 min 0 W/m 8,4 km/h (2 Bft) 97,87 %
29.03.2017 20:46 14,2 C 13,9 C 12,2 C 77 % 0 lf 1024,0 hPa 0,0 l/m 0 min 0 min 0 W/m 8,4 km/h (2 Bft) 97,87 %
29.03.2017 20:48 14,2 C 13,9 C 12,2 C 78 % 0 lf 1024,1 hPa 0,0 l/m 0 min 0 min 0 W/m 10,5 km/h (2 Bft) 95,74 %
29.03.2017 20:50 14,2 C 13,9 C 12,2 C 77 % 0 lf 1024,1 hPa 0,0 l/m 0 min 0 min 0 W/m 8,4 km/h (2 Bft) 100,00 %
29.03.2017 20:52 14,2 C 13,9 C 12,2 C 78 % 0 lf 1024,1 hPa 0,0 l/m 0 min 0 min 0 W/m 6,3 km/h (2 Bft) 97,87 %
29.03.2017 20:54 14,2 C 13,9 C 12,2 C 78 % 0 lf 1024,1 hPa 0,0 l/m 0 min 0 min 0 W/m 8,4 km/h (2 Bft) 100,00 %
29.03.2017 20:56 14,2 C 13,9 C 12,2 C 78 % 0 lf 1024,1 hPa 0,0 l/m 0 min 0 min 0 W/m 8,4 km/h (2 Bft) 100,00 %
29.03.2017 20:58 14,2 C 13,9 C 12,2 C 78 % 0 lf 1024,1 hPa 0,0 l/m 0 min 0 min 0 W/m 6,3 km/h (2 Bft) 97,87 %
29.03.2017 21:00 14,2 C 13,9 C 12,2 C 78 % 0 lf 1024,1 hPa 0,0 l/m 0 min 0 min 0 W/m 6,3 km/h (2 Bft) 97,87 %
29.03.2017 21:02 14,2 C 13,9 C 12,2 C 78 % 0 lf 1024,1 hPa 0,0 l/m 0 min 0 min 0 W/m 8,4 km/h (2 Bft) 100,00 %
29.03.2017 21:04 14,2 C 13,9 C 12,2 C 78 % 0 lf 1024,1 hPa 0,0 l/m 0 min 0 min 0 W/m 6,3 km/h (2 Bft) 97,87 %
29.03.2017 21:06 14,2 C 13,9 C 12,2 C 78 % 0 lf 1024,2 hPa 0,0 l/m 0 min 0 min 0 W/m 8,4 km/h (2 Bft) 97,87 %
29.03.2017 21:08 14,2 C 13,9 C 12,2 C 78 % 0 lf 1024,2 hPa 0,0 l/m 0 min 0 min 0 W/m 10,5 km/h (2 Bft) 97,87 %
29.03.2017 21:10 14,2 C 13,9 C 12,2 C 78 % 0 lf 1024,1 hPa 0,0 l/m 0 min 0 min 0 W/m 10,5 km/h (2 Bft) 95,74 %
29.03.2017 21:12 14,2 C 13,9 C 12,2 C 78 % 0 lf 1024,2 hPa 0,0 l/m 0 min 0 min 0 W/m 6,3 km/h (2 Bft) 97,87 %
29.03.2017 21:14 14,2 C 13,9 C 12,2 C 78 % 0 lf 1024,2 hPa 0,0 l/m 0 min 0 min 0 W/m 8,4 km/h (2 Bft) 93,48 %
29.03.2017 21:16 14,2 C 14,4 C 12,2 C 78 % 0 lf 1024,1 hPa 0,0 l/m 0 min 0 min 0 W/m 8,4 km/h (2 Bft) 93,62 %
29.03.2017 21:18 14,2 C 14,4 C 12,2 C 78 % 0 lf 1024,2 hPa 0,0 l/m 0 min 0 min 0 W/m 10,5 km/h (2 Bft) 95,74 %
29.03.2017 21:20 14,2 C 14,4 C 12,2 C 78 % 0 lf 1024,3 hPa 0,0 l/m 0 min 0 min 0 W/m 10,5 km/h (2 Bft) 93,62 %
29.03.2017 21:22 14,2 C 14,4 C 12,2 C 78 % 0 lf 1024,3 hPa 0,0 l/m 0 min 0 min 0 W/m 8,4 km/h (2 Bft) 89,36 %
29.03.2017 21:24 14,2 C 14,4 C 12,2 C 78 % 0 lf 1024,3 hPa 0,0 l/m 0 min 0 min 0 W/m 8,4 km/h (2 Bft) 93,48 %
29.03.2017 21:26 14,2 C 14,4 C 12,2 C 78 % 0 lf 1024,3 hPa 0,0 l/m 0 min 0 min 0 W/m 6,3 km/h (2 Bft) 95,74 %
29.03.2017 21:28 14,2 C 13,9 C 12,2 C 78 % 0 lf 1024,3 hPa 0,0 l/m 0 min 0 min 0 W/m 12,6 km/h (3 Bft) 95,74 %
29.03.2017 21:30 14,2 C 13,9 C 12,2 C 78 % 0 lf 1024,3 hPa 0,0 l/m 0 min 0 min 0 W/m 8,4 km/h (2 Bft) 97,87 %
29.03.2017 21:32 14,2 C 13,9 C 12,2 C 78 % 0 lf 1024,3 hPa 0,0 l/m 0 min 0 min 0 W/m 6,3 km/h (2 Bft) 93,62 %
29.03.2017 21:34 14,2 C 13,9 C 12,2 C 78 % 0 lf 1024,4 hPa 0,0 l/m 0 min 0 min 0 W/m 8,4 km/h (2 Bft) 95,74 %
29.03.2017 21:36 14,2 C 13,9 C 12,2 C 79 % 0 lf 1024,4 hPa 0,0 l/m 0 min 0 min 0 W/m 10,5 km/h (2 Bft) 93,48 %
29.03.2017 21:38 14,2 C 13,9 C 12,2 C 79 % 0 lf 1024,4 hPa 0,0 l/m 0 min 0 min 0 W/m 10,5 km/h (2 Bft) 95,74 %
29.03.2017 21:40 14,2 C 14,4 C 12,2 C 79 % 0 lf 1024,4 hPa 0,0 l/m 0 min 0 min 0 W/m 12,6 km/h (3 Bft) 95,74 %
29.03.2017 21:42 14,2 C 14,4 C 12,2 C 79 % 0 lf 1024,4 hPa 0,0 l/m 0 min 0 min 0 W/m 10,5 km/h (2 Bft) 95,74 %
29.03.2017 21:44 14,2 C 14,4 C 12,2 C 79 % 0 lf 1024,3 hPa 0,0 l/m 0 min 0 min 0 W/m 10,5 km/h (2 Bft) 95,74 %
29.03.2017 21:46 14,2 C 14,4 C 12,2 C 79 % 0 lf 1024,4 hPa 0,0 l/m 0 min 0 min 0 W/m 10,5 km/h (2 Bft) 95,74 %
29.03.2017 21:48 14,2 C 14,4 C 12,2 C 79 % 0 lf 1024,4 hPa 0,0 l/m 0 min 0 min 0 W/m 12,6 km/h (3 Bft) 93,48 %
29.03.2017 21:50 14,2 C 14,4 C 12,2 C 79 % 0 lf 1024,4 hPa 0,0 l/m 0 min 0 min 0 W/m 10,5 km/h (2 Bft) 95,74 %
29.03.2017 21:52 14,2 C 14,4 C 12,2 C 79 % 0 lf 1024,4 hPa 0,0 l/m 0 min 0 min 0 W/m 8,4 km/h (2 Bft) 91,49 %
29.03.2017 21:54 14,1 C 14,4 C 12,2 C 78 % 0 lf 1024,4 hPa 0,0 l/m 0 min 0 min 0 W/m 8,4 km/h (2 Bft) 93,62 %
29.03.2017 21:56 14,2 C 14,4 C 12,2 C 78 % 0 lf 1024,5 hPa 0,0 l/m 0 min 0 min 0 W/m 14,6 km/h (3 Bft) 95,74 %
29.03.2017 21:58 14,2 C 14,4 C 12,2 C 78 % 0 lf 1024,5 hPa 0,0 l/m 0 min 0 min 0 W/m 8,4 km/h (2 Bft) 95,74 %
29.03.2017 22:00 14,1 C 14,4 C 12,2 C 78 % 0 lf 1024,5 hPa 0,0 l/m 0 min 0 min 0 W/m 12,6 km/h (3 Bft) 93,48 %
29.03.2017 22:02 14,2 C 14,4 C 12,2 C 78 % 0 lf 1024,5 hPa 0,0 l/m 0 min 0 min 0 W/m 10,5 km/h (2 Bft) 93,62 %
29.03.2017 22:04 14,2 C 14,4 C 12,2 C 78 % 0 lf 1024,5 hPa 0,0 l/m 0 min 0 min 0 W/m 10,5 km/h (2 Bft) 93,62 %
29.03.2017 22:06 14,2 C 14,4 C 12,2 C 78 % 0 lf 1024,6 hPa 0,0 l/m 0 min 0 min 0 W/m 10,5 km/h (2 Bft) 91,49 %
29.03.2017 22:08 14,2 C 14,4 C 12,2 C 78 % 0 lf 1024,5 hPa 0,0 l/m 0 min 0 min 0 W/m 10,5 km/h (2 Bft) 100,00 %
29.03.2017 22:10 14,2 C 14,4 C 12,2 C 78 % 0 lf 1024,5 hPa 0,0 l/m 0 min 0 min 0 W/m 8,4 km/h (2 Bft) 93,62 %
29.03.2017 22:12 14,2 C 13,9 C 12,2 C 78 % 0 lf 1024,5 hPa 0,0 l/m 0 min 0 min 0 W/m 6,3 km/h (2 Bft) 93,48 %
29.03.2017 22:14 14,2 C 13,9 C 12,2 C 78 % 0 lf 1024,6 hPa 0,0 l/m 0 min 0 min 0 W/m 14,6 km/h (3 Bft) 97,87 %
29.03.2017 22:16 14,2 C 13,9 C 12,2 C 78 % 0 lf 1024,6 hPa 0,0 l/m 0 min 0 min 0 W/m 10,5 km/h (2 Bft) 97,87 %
29.03.2017 22:18 14,2 C 13,9 C 12,2 C 78 % 0 lf 1024,6 hPa 0,0 l/m 0 min 0 min 0 W/m 10,5 km/h (2 Bft) 97,87 %
29.03.2017 22:20 14,2 C 13,9 C 12,2 C 78 % 0 lf 1024,6 hPa 0,0 l/m 0 min 0 min 0 W/m 8,4 km/h (2 Bft) 95,74 %
29.03.2017 22:22 14,2 C 14,4 C 12,2 C 78 % 0 lf 1024,6 hPa 0,0 l/m 0 min 0 min 0 W/m 10,5 km/h (2 Bft) 93,62 %
29.03.2017 22:24 14,2 C 14,4 C 12,2 C 78 % 0 lf 1024,6 hPa 0,0 l/m 0 min 0 min 0 W/m 10,5 km/h (2 Bft) 93,48 %
29.03.2017 22:26 14,1 C 13,9 C 12,2 C 78 % 0 lf 1024,6 hPa 0,0 l/m 0 min 0 min 0 W/m 10,5 km/h (2 Bft) 97,87 %
29.03.2017 22:28 14,2 C 13,9 C 12,2 C 78 % 0 lf 1024,6 hPa 0,0 l/m 0 min 0 min 0 W/m 10,5 km/h (2 Bft) 95,74 %
29.03.2017 22:30 14,2 C 13,9 C 12,2 C 78 % 0 lf 1024,6 hPa 0,0 l/m 0 min 0 min 0 W/m 6,3 km/h (2 Bft) 95,74 %
29.03.2017 22:32 14,2 C 13,9 C 12,2 C 78 % 0 lf 1024,6 hPa 0,0 l/m 0 min 0 min 0 W/m 6,3 km/h (2 Bft) 95,74 %
29.03.2017 22:34 14,1 C 13,9 C 12,2 C 78 % 0 lf 1024,6 hPa 0,0 l/m 0 min 0 min 0 W/m 12,6 km/h (3 Bft) 95,74 %
29.03.2017 22:36 14,1 C 14,4 C 12,2 C 78 % 0 lf 1024,6 hPa 0,0 l/m 0 min 0 min 0 W/m 10,5 km/h (2 Bft) 95,65 %
29.03.2017 22:38 14,1 C 14,4 C 12,2 C 78 % 0 lf 1024,7 hPa 0,0 l/m 0 min 0 min 0 W/m 10,5 km/h (2 Bft) 95,74 %
29.03.2017 22:40 14,1 C 14,4 C 12,2 C 78 % 0 lf 1024,7 hPa 0,0 l/m 0 min 0 min 0 W/m 10,5 km/h (2 Bft) 93,62 %
29.03.2017 22:42 14,1 C 14,4 C 12,2 C 78 % 0 lf 1024,7 hPa 0,0 l/m 0 min 0 min 0 W/m 10,5 km/h (2 Bft) 95,74 %
29.03.2017 22:44 14,1 C 14,4 C 12,2 C 78 % 0 lf 1024,7 hPa 0,0 l/m 0 min 0 min 0 W/m 12,6 km/h (3 Bft) 97,87 %
29.03.2017 22:46 14,1 C 14,4 C 12,2 C 78 % 0 lf 1024,6 hPa 0,0 l/m 0 min 0 min 0 W/m 10,5 km/h (2 Bft) 93,62 %
29.03.2017 22:48 14,1 C 14,4 C 12,2 C 78 % 0 lf 1024,7 hPa 0,0 l/m 0 min 0 min 0 W/m 12,6 km/h (3 Bft) 97,83 %
29.03.2017 22:50 14,1 C 14,4 C 12,2 C 78 % 0 lf 1024,7 hPa 0,0 l/m 0 min 0 min 0 W/m 12,6 km/h (3 Bft) 97,87 %
29.03.2017 22:52 14,1 C 14,4 C 12,2 C 78 % 0 lf 1024,7 hPa 0,0 l/m 0 min 0 min 0 W/m 10,5 km/h (2 Bft) 95,74 %
29.03.2017 22:54 14,2 C 14,4 C 12,2 C 78 % 0 lf 1024,7 hPa 0,0 l/m 0 min 0 min 0 W/m 10,5 km/h (2 Bft) 97,87 %
29.03.2017 22:56 14,2 C 14,4 C 12,2 C 78 % 0 lf 1024,7 hPa 0,0 l/m 0 min 0 min 0 W/m 12,6 km/h (3 Bft) 97,87 %
29.03.2017 22:58 14,2 C 14,4 C 12,2 C 78 % 0 lf 1024,7 hPa 0,0 l/m 0 min 0 min 0 W/m 10,5 km/h (2 Bft) 93,48 %
29.03.2017 23:00 14,2 C 14,4 C 12,8 C 78 % 0 lf 1024,7 hPa 0,0 l/m 0 min 0 min 0 W/m 12,6 km/h (3 Bft) 97,87 %
29.03.2017 23:02 14,2 C 14,4 C 12,2 C 78 % 0 lf 1024,7 hPa 0,0 l/m 0 min 0 min 0 W/m 6,3 km/h (2 Bft) 97,87 %
29.03.2017 23:04 14,2 C 14,4 C 12,2 C 78 % 0 lf 1024,7 hPa 0,0 l/m 0 min 0 min 0 W/m 8,4 km/h (2 Bft) 95,74 %
29.03.2017 23:06 14,2 C 14,4 C 12,2 C 77 % 0 lf 1024,7 hPa 0,0 l/m 0 min 0 min 0 W/m 6,3 km/h (2 Bft) 97,87 %
29.03.2017 23:08 14,2 C 14,4 C 12,2 C 78 % 0 lf 1024,7 hPa 0,0 l/m 0 min 0 min 0 W/m 8,4 km/h (2 Bft) 97,87 %
29.03.2017 23:10 14,2 C 14,4 C 12,2 C 78 % 0 lf 1024,7 hPa 0,0 l/m 0 min 0 min 0 W/m 6,3 km/h (2 Bft) 97,83 %
29.03.2017 23:12 14,2 C 14,4 C 12,2 C 78 % 0 lf 1024,7 hPa 0,0 l/m 0 min 0 min 0 W/m 8,4 km/h (2 Bft) 95,74 %
29.03.2017 23:14 14,2 C 14,4 C 12,2 C 78 % 0 lf 1024,7 hPa 0,0 l/m 0 min 0 min 0 W/m 10,5 km/h (2 Bft) 97,87 %
29.03.2017 23:16 14,2 C 13,9 C 12,2 C 78 % 0 lf 1024,7 hPa 0,0 l/m 0 min 0 min 0 W/m 6,3 km/h (2 Bft) 91,49 %
29.03.2017 23:18 14,2 C 13,9 C 12,2 C 78 % 0 lf 1024,7 hPa 0,0 l/m 0 min 0 min 0 W/m 8,4 km/h (2 Bft) 97,87 %
29.03.2017 23:20 14,2 C 13,9 C 12,2 C 78 % 0 lf 1024,7 hPa 0,0 l/m 0 min 0 min 0 W/m 12,6 km/h (3 Bft) 97,87 %
29.03.2017 23:22 14,2 C 13,9 C 12,2 C 78 % 0 lf 1024,7 hPa 0,0 l/m 0 min 0 min 0 W/m 8,4 km/h (2 Bft) 95,65 %
29.03.2017 23:24 14,2 C 13,9 C 12,2 C 78 % 0 lf 1024,7 hPa 0,0 l/m 0 min 0 min 0 W/m 8,4 km/h (2 Bft) 93,62 %
29.03.2017 23:26 14,2 C 13,9 C 12,2 C 78 % 0 lf 1024,7 hPa 0,0 l/m 0 min 0 min 0 W/m 6,3 km/h (2 Bft) 100,00 %
29.03.2017 23:28 14,2 C 14,4 C 12,2 C 78 % 0 lf 1024,7 hPa 0,0 l/m 0 min 0 min 0 W/m 8,4 km/h (2 Bft) 97,87 %
29.03.2017 23:30 14,2 C 13,9 C 12,2 C 78 % 0 lf 1024,7 hPa 0,0 l/m 0 min 0 min 0 W/m 10,5 km/h (2 Bft) 95,74 %
29.03.2017 23:32 14,1 C 13,9 C 12,2 C 78 % 0 lf 1024,7 hPa 0,0 l/m 0 min 0 min 0 W/m 10,5 km/h (2 Bft) 100,00 %
29.03.2017 23:34 14,1 C 13,9 C 12,2 C 78 % 0 lf 1024,7 hPa 0,0 l/m 0 min 0 min 0 W/m 12,6 km/h (3 Bft) 100,00 %
29.03.2017 23:36 14,1 C 14,4 C 12,2 C 78 % 0 lf 1024,7 hPa 0,0 l/m 0 min 0 min 0 W/m 10,5 km/h (2 Bft) 97,87 %
29.03.2017 23:38 14,1 C 14,4 C 12,2 C 77 % 0 lf 1024,7 hPa 0,0 l/m 0 min 0 min 0 W/m 8,4 km/h (2 Bft) 97,87 %
29.03.2017 23:40 14,1 C 14,4 C 12,2 C 77 % 0 lf 1024,7 hPa 0,0 l/m 0 min 0 min 0 W/m 8,4 km/h (2 Bft) 100,00 %
29.03.2017 23:42 14,1 C 14,4 C 12,2 C 77 % 0 lf 1024,7 hPa 0,0 l/m 0 min 0 min 0 W/m 8,4 km/h (2 Bft) 100,00 %
29.03.2017 23:44 14,1 C 14,4 C 12,2 C 77 % 0 lf 1024,8 hPa 0,0 l/m 0 min 0 min 0 W/m 12,6 km/h (3 Bft) 97,87 %
29.03.2017 23:46 14,1 C 14,4 C 12,2 C 77 % 0 lf 1024,8 hPa 0,0 l/m 0 min 0 min 0 W/m 8,4 km/h (2 Bft) 95,65 %
29.03.2017 23:48 14,1 C 14,4 C 12,2 C 77 % 0 lf 1024,8 hPa 0,0 l/m 0 min 0 min 0 W/m 10,5 km/h (2 Bft) 95,74 %
29.03.2017 23:50 14,1 C 14,4 C 12,2 C 77 % 0 lf 1024,7 hPa 0,0 l/m 0 min 0 min 0 W/m 12,6 km/h (3 Bft) 100,00 %
29.03.2017 23:52 14,1 C 14,4 C 12,2 C 77 % 0 lf 1024,8 hPa 0,0 l/m 0 min 0 min 0 W/m 8,4 km/h (2 Bft) 98,18 %
29.03.2017 23:54 14,2 C 14,4 C 12,2 C 77 % 0 lf 1024,7 hPa 0,0 l/m 0 min 0 min 0 W/m 10,5 km/h (2 Bft) 100,00 %
29.03.2017 23:56 14,2 C 14,4 C 12,2 C 77 % 0 lf 1024,7 hPa 0,0 l/m 0 min 0 min 0 W/m 10,5 km/h (2 Bft) 97,87 %
29.03.2017 23:58 14,2 C 14,4 C 12,2 C 77 % 0 lf 1024,8 hPa 0,0 l/m 0 min 0 min 0 W/m 14,6 km/h (3 Bft) 97,87 %
_ Min-Zeit 07:30 00:56 00:52 14:58 00:00 00:00 - - - - 00:04 06:30
Minimum _ 9,9 C 9,4 C 6,7 C 69 % 0 lf 1022,2 hPa - - - - 4,2 km/h (1 Bft) 80,85 %
_ Max-Zeit 14:52 13:52 13:52 07:36 09:14 23:44 00:00 07:36 09:12 13:50 12:20 00:44
Maximum _ 16,4 C 22,8 C 17,8 C 88 % 13 lf 1024,8 hPa 0,0 l/m 2 min 2 min 858 W/m 43,9 km/h
W-SW (6 Bft)
100,00 %
Durchschnitt _ 13,2 C 13,8 C 12,0 C 79 % 0 lf 1023,3 hPa #0,0 l/m #3:46 h #6 min. 176 W/m 16,7 km/h (3 Bft) 96,21 %
© 2017 W. Hausmann